
Distance (Route):
Temperature : -50.6°C
Humidity : 0%
Pressure : 24.7hPa| Receiver | Frames | First received | Last received |
|---|---|---|---|
| AA1-15 | 639 | 2026-09-02 00:06:15 | 2026-09-02 00:56:19 |
| Receiver | Date | Latitude | Longitude | Direction | Speed | Altitude | Climb | Temperature | Humidity | Pressure | Voltage | Killtimer | Uptime | BKT | XDATA |
|---|---|---|---|---|---|---|---|---|---|---|---|---|---|---|---|
| AA1-15 | 2026-09-02 00:56:19 | 54.67924 | 20.46694 | 0° | 0km/h | 159087m | 0m/s | -50.6°C | 0% | 24.7hPa | 2.2V | 00:00:00 | 00:00:00 | 00:00:00 | |
| AA1-15 | 2026-09-02 00:55:57 | 54.67924 | 20.46694 | 0° | 0km/h | 159087m | 0m/s | -50.7°C | 0% | 22.4hPa | 2.2V | 00:00:00 | 00:00:00 | 00:00:00 | |
| AA1-15 | 2026-09-02 00:55:46 | 54.67924 | 20.46694 | 0° | 0km/h | 159087m | 0m/s | -50.8°C | 0% | 21.4hPa | 2.2V | 00:00:00 | 00:00:00 | 00:00:00 | |
| AA1-15 | 2026-09-02 00:55:35 | 54.67924 | 20.46694 | 0° | 0km/h | 159087m | 0m/s | -50.4°C | 0% | 20.4hPa | 2.2V | 00:00:00 | 00:00:00 | 00:00:00 | |
| AA1-15 | 2026-09-02 00:55:24 | 54.67924 | 20.46694 | 0° | 0km/h | 159087m | 0m/s | -50.4°C | 0% | 19.3hPa | 2.2V | 00:00:00 | 00:00:00 | 00:00:00 | |
| AA1-15 | 2026-09-02 00:54:58 | 54.67916 | 20.46685 | 32° | 18km/h | 159087m | 12.2m/s | -49.3°C | 0% | 17hPa | 2.2V | 00:00:00 | 00:00:00 | 00:00:00 | |
| AA1-15 | 2026-09-02 00:54:48 | 54.67879 | 20.46645 | 32° | 24km/h | 2967m | 15m/s | -47.9°C | 0% | 16.2hPa | 2.2V | 00:00:00 | 00:00:00 | 00:00:00 | |
| AA1-15 | 2026-09-02 00:54:34 | 54.67821 | 20.46619 | 32° | 26km/h | 2811m | 17.6m/s | -45°C | 0% | 15.1hPa | 2.2V | 00:00:00 | 00:00:00 | 00:00:00 | |
| AA1-15 | 2026-09-02 00:54:23 | 54.67777 | 20.46598 | 35° | 27km/h | 2689m | 21.5m/s | -45.2°C | 0% | 14.2hPa | 2.2V | 00:00:00 | 00:00:00 | 00:00:00 | |
| AA1-15 | 2026-09-02 00:54:09 | 54.67737 | 20.46585 | 7° | 16km/h | 2554m | 9.2m/s | -43.7°C | 0% | 13.3hPa | 2.2V | 00:00:00 | 00:00:00 | 00:00:00 | |
| AA1-15 | 2026-09-02 00:53:39 | 54.67647 | 20.46686 | 41° | 26km/h | 2508m | 17.9m/s | -43.5°C | 0.1% | 11.2hPa | 2.2V | 00:00:00 | 00:00:00 | 00:00:00 | |
| AA1-15 | 2026-09-02 00:53:16 | 54.67560 | 20.46650 | 36° | 40km/h | 2260m | 20.1m/s | -43.4°C | 0.2% | 9.7hPa | 2.2V | 00:00:00 | 00:00:00 | 00:00:00 | |
| AA1-15 | 2026-09-02 00:53:04 | 54.67515 | 20.46628 | 35° | 20km/h | 2131m | 17.9m/s | -42.4°C | 0.2% | 9hPa | 2.2V | 00:00:00 | 00:00:00 | 00:00:00 | |
| AA1-15 | 2026-09-02 00:52:53 | 54.67479 | 20.46564 | 15° | 20km/h | 1936m | 13.1m/s | -42.5°C | 0.2% | 8.4hPa | 2.2V | 00:00:00 | 00:00:00 | 00:00:00 | |
| AA1-15 | 2026-09-02 00:52:52 | 54.67478 | 20.46559 | 13° | 16km/h | 1921m | 11.3m/s | -42.5°C | 0.3% | 8.4hPa | 2.2V | 00:00:00 | 00:00:00 | 00:00:00 | |
| AA1-15 | 2026-09-02 00:52:48 | 54.67464 | 20.46540 | 7° | 16km/h | 1857m | 9.2m/s | -42.2°C | 0.3% | 8.1hPa | 2.2V | 00:00:00 | 00:00:00 | 00:00:00 | |
| AA1-15 | 2026-09-02 00:52:47 | 54.67466 | 20.46540 | 17° | 26km/h | 1854m | 7.8m/s | -42.1°C | 0.2% | 8hPa | 2.2V | 00:00:00 | 00:00:00 | 00:00:00 | |
| AA1-15 | 2026-09-02 00:52:45 | 54.67459 | 20.46552 | 354° | 62km/h | 1903m | 14m/s | -41.4°C | 0.3% | 8hPa | 2.2V | 00:00:00 | 00:00:00 | 00:00:00 | |
| AA1-15 | 2026-09-02 00:52:44 | 54.67447 | 20.46563 | 10° | 31km/h | 1906m | 11.8m/s | -41.2°C | 0.3% | 7.9hPa | 2.2V | 00:00:00 | 00:00:00 | 00:00:00 | |
| AA1-15 | 2026-09-02 00:52:41 | 54.67376 | 20.46569 | 1° | 99km/h | 1886m | 15.2m/s | -40.7°C | 0.2% | 7.7hPa | 2.2V | 00:00:00 | 00:00:00 | 00:00:00 | |
| AA1-15 | 2026-09-02 00:52:40 | 54.67348 | 20.46590 | 359° | 104km/h | 1909m | 15.6m/s | -40.6°C | 0.2% | 7.7hPa | 2.2V | 00:00:00 | 00:00:00 | 00:00:00 | |
| AA1-15 | 2026-09-02 00:52:39 | 54.67322 | 20.46600 | 354° | 97km/h | 1917m | 11.8m/s | -40.5°C | 0.2% | 7.7hPa | 2.2V | 00:00:00 | 00:00:00 | 00:00:00 | |
| AA1-15 | 2026-09-02 00:52:38 | 54.67301 | 20.46609 | 356° | 93km/h | 1925m | 10.8m/s | -40.5°C | 0.2% | 7.6hPa | 2.2V | 00:00:00 | 00:00:00 | 00:00:00 | |
| AA1-15 | 2026-09-02 00:52:36 | 54.67256 | 20.46613 | 357° | 99km/h | 1903m | 21.9m/s | -40.5°C | 0.2% | 7.5hPa | 2.2V | 00:00:00 | 00:00:00 | 00:00:00 | |
| AA1-15 | 2026-09-02 00:52:35 | 54.67229 | 20.46635 | 355° | 104km/h | 1913m | 21.2m/s | -40.5°C | 0.2% | 7.3hPa | 2.2V | 00:00:00 | 00:00:00 | 00:00:00 | |
| AA1-15 | 2026-09-02 00:52:33 | 54.67188 | 20.46659 | 355° | 93km/h | 1900m | 16.6m/s | -40.5°C | 0.2% | 7.3hPa | 2.2V | 00:00:00 | 00:00:00 | 00:00:00 | |
| AA1-15 | 2026-09-02 00:52:30 | 54.67125 | 20.46699 | 344° | 97km/h | 1884m | 15.6m/s | -40.6°C | 0.2% | 7.3hPa | 2.2V | 00:00:00 | 00:00:00 | 00:00:00 | |
| AA1-15 | 2026-09-02 00:52:29 | 54.67104 | 20.46720 | 341° | 99km/h | 1885m | 12.1m/s | -40.7°C | 0.2% | 7.3hPa | 2.2V | 00:00:00 | 00:00:00 | 00:00:00 | |
| AA1-15 | 2026-09-02 00:52:27 | 54.67065 | 20.46766 | 335° | 97km/h | 1879m | 8.4m/s | -40.8°C | 0.2% | 7.3hPa | 2.2V | 00:00:00 | 00:00:00 | 00:00:00 | |
| AA1-15 | 2026-09-02 00:52:26 | 54.67044 | 20.46791 | 337° | 95km/h | 1885m | 8.5m/s | -40.8°C | 0.1% | 7.4hPa | 2.2V | 00:00:00 | 00:00:00 | 00:00:00 | |
| AA1-15 | 2026-09-02 00:52:24 | 54.67002 | 20.46835 | 328° | 97km/h | 1879m | 4.1m/s | -40.9°C | 0.2% | 7.4hPa | 2.2V | 00:00:00 | 00:00:00 | 00:00:00 | |
| AA1-15 | 2026-09-02 00:52:23 | 54.66981 | 20.46859 | 325° | 97km/h | 1876m | 6.3m/s | -40.9°C | 0.1% | 7.3hPa | 2.2V | 00:00:00 | 00:00:00 | 00:00:00 | |
| AA1-15 | 2026-09-02 00:52:22 | 54.66961 | 20.46883 | 328° | 95km/h | 1868m | 9.5m/s | -41°C | 0.1% | 7.4hPa | 2.2V | 00:00:00 | 00:00:00 | 00:00:00 | |
| AA1-15 | 2026-09-02 00:52:20 | 54.66922 | 20.46926 | 326° | 97km/h | 1838m | 9.4m/s | -41°C | 0.2% | 7.4hPa | 2.2V | 00:00:00 | 00:00:00 | 00:00:00 | |
| AA1-15 | 2026-09-02 00:52:19 | 54.66905 | 20.46950 | 321° | 97km/h | 1834m | 7.3m/s | -41°C | 0.2% | 7.4hPa | 2.2V | 00:00:00 | 00:00:00 | 00:00:00 | |
| AA1-15 | 2026-09-02 00:52:18 | 54.66892 | 20.46978 | 317° | 95km/h | 1829m | 6.2m/s | -41.1°C | 0.1% | 7.4hPa | 2.2V | 00:00:00 | 00:00:00 | 00:00:00 | |
| AA1-15 | 2026-09-02 00:52:12 | 54.66773 | 20.47187 | 316° | 89km/h | 1833m | 16.1m/s | -41.2°C | 0.1% | 7.5hPa | 2.2V | 00:00:00 | 00:00:00 | 00:00:00 | |
| AA1-15 | 2026-09-02 00:52:11 | 54.66757 | 20.47206 | 314° | 95km/h | 1798m | 15.5m/s | -41.2°C | 0.2% | 7.5hPa | 2.2V | 00:00:00 | 00:00:00 | 00:00:00 | |
| AA1-15 | 2026-09-02 00:52:09 | 54.66727 | 20.47248 | 307° | 93km/h | 1725m | 10.8m/s | -41.2°C | 0.1% | 7.5hPa | 2.2V | 00:00:00 | 00:00:00 | 00:00:00 | |
| AA1-15 | 2026-09-02 00:52:08 | 54.66715 | 20.47282 | 307° | 97km/h | 1708m | 10.8m/s | -41.2°C | 0.1% | 7.5hPa | 2.2V | 00:00:00 | 00:00:00 | 00:00:00 | |
| AA1-15 | 2026-09-02 00:52:06 | 54.66686 | 20.47358 | 303° | 99km/h | 1702m | 7.3m/s | -41.2°C | 0.1% | 7.5hPa | 2.2V | 00:00:00 | 00:00:00 | 00:00:00 | |
| AA1-15 | 2026-09-02 00:52:05 | 54.66672 | 20.47400 | 302° | 100km/h | 1705m | 7.8m/s | -41.3°C | 0.1% | 7.5hPa | 2.2V | 00:00:00 | 00:00:00 | 00:00:00 | |
| AA1-15 | 2026-09-02 00:52:04 | 54.66659 | 20.47452 | 300° | 95km/h | 1719m | 11.1m/s | -41.2°C | 0.1% | 7.5hPa | 2.2V | 00:00:00 | 00:00:00 | 00:00:00 | |
| AA1-15 | 2026-09-02 00:52:03 | 54.66648 | 20.47491 | 299° | 89km/h | 1719m | 12.6m/s | -41.2°C | 0.1% | 7.6hPa | 2.2V | 00:00:00 | 00:00:00 | 00:00:00 | |
| AA1-15 | 2026-09-02 00:52:01 | 54.66628 | 20.47558 | 293° | 99km/h | 1689m | 9.9m/s | -41.2°C | 0.1% | 7.6hPa | 2.2V | 00:00:00 | 00:00:00 | 00:00:00 | |
| AA1-15 | 2026-09-02 00:51:59 | 54.66619 | 20.47657 | 290° | 91km/h | 1715m | 10.4m/s | -41.2°C | 0.1% | 7.6hPa | 2.2V | 00:00:00 | 00:00:00 | 00:00:00 | |
| AA1-15 | 2026-09-02 00:51:57 | 54.66604 | 20.47743 | 288° | 91km/h | 1712m | 11.9m/s | -41.2°C | 0.1% | 7.6hPa | 2.2V | 00:00:00 | 00:00:00 | 00:00:00 | |
| AA1-15 | 2026-09-02 00:51:54 | 54.66576 | 20.47840 | 283° | 91km/h | 1632m | 12.8m/s | -41.2°C | 0.1% | 7.6hPa | 2.2V | 00:00:00 | 00:00:00 | 00:00:00 | |
| AA1-15 | 2026-09-02 00:51:53 | 54.66566 | 20.47874 | 281° | 93km/h | 1605m | 11.3m/s | -41.2°C | 0.1% | 7.6hPa | 2.2V | 00:00:00 | 00:00:00 | 00:00:00 | |
| AA1-15 | 2026-09-02 00:51:51 | 54.66558 | 20.47968 | 281° | 93km/h | 1606m | 12.3m/s | -41.2°C | 0.1% | 7.7hPa | 2.2V | 00:00:00 | 00:00:00 | 00:00:00 | |
| AA1-15 | 2026-09-02 00:51:50 | 54.66548 | 20.48008 | 281° | 84km/h | 1590m | 17.4m/s | -41.3°C | 0.1% | 7.7hPa | 2.2V | 00:00:00 | 00:00:00 | 00:00:00 | |
| AA1-15 | 2026-09-02 00:51:48 | 54.66539 | 20.48085 | 278° | 91km/h | 1558m | 13.4m/s | -41.3°C | 0.1% | 7.7hPa | 2.2V | 00:00:00 | 00:00:00 | 00:00:00 | |
| AA1-15 | 2026-09-02 00:51:47 | 54.66539 | 20.48126 | 274° | 93km/h | 1548m | 10.9m/s | -41.4°C | 0.1% | 7.7hPa | 2.2V | 00:00:00 | 00:00:00 | 00:00:00 | |
| AA1-15 | 2026-09-02 00:51:46 | 54.66541 | 20.48167 | 270° | 95km/h | 1539m | 9.3m/s | -41.5°C | 0.1% | 7.7hPa | 2.2V | 00:00:00 | 00:00:00 | 00:00:00 | |
| AA1-15 | 2026-09-02 00:51:44 | 54.66542 | 20.48243 | 269° | 91km/h | 1508m | 10.6m/s | -41.6°C | 0.1% | 7.7hPa | 2.2V | 00:00:00 | 00:00:00 | 00:00:00 | |
| AA1-15 | 2026-09-02 00:51:43 | 54.66544 | 20.48283 | 266° | 95km/h | 1492m | 10.6m/s | -41.6°C | 0.1% | 7.7hPa | 2.2V | 00:00:00 | 00:00:00 | 00:00:00 | |
| AA1-15 | 2026-09-02 00:51:42 | 54.66547 | 20.48325 | 263° | 91km/h | 1482m | 10.1m/s | -41.6°C | 0.1% | 7.7hPa | 2.2V | 00:00:00 | 00:00:00 | 00:00:00 | |
| AA1-15 | 2026-09-02 00:51:41 | 54.66552 | 20.48372 | 263° | 91km/h | 1475m | 12.2m/s | -41.6°C | 0.1% | 7.7hPa | 2.2V | 00:00:00 | 00:00:00 | 00:00:00 | |
| AA1-15 | 2026-09-02 00:51:39 | 54.66558 | 20.48461 | 261° | 84km/h | 1470m | 17.2m/s | -41.7°C | 0.1% | 7.8hPa | 2.2V | 00:00:00 | 00:00:00 | 00:00:00 | |
| AA1-15 | 2026-09-02 00:51:38 | 54.66561 | 20.48519 | 254° | 86km/h | 1407m | 17.3m/s | -41.8°C | 0.1% | 7.8hPa | 2.2V | 00:00:00 | 00:00:00 | 00:00:00 | |
| AA1-15 | 2026-09-02 00:51:36 | 54.66564 | 20.48550 | 254° | 86km/h | 1379m | 15.2m/s | -41.8°C | 0.1% | 7.8hPa | 2.2V | 00:00:00 | 00:00:00 | 00:00:00 | |
| AA1-15 | 2026-09-02 00:51:35 | 54.66572 | 20.48593 | 251° | 91km/h | 1374m | 12.3m/s | -41.9°C | 0% | 7.8hPa | 2.2V | 00:00:00 | 00:00:00 | 00:00:00 | |
| AA1-15 | 2026-09-02 00:51:32 | 54.66601 | 20.48725 | 248° | 91km/h | 1368m | 12.4m/s | -42°C | 0.1% | 7.8hPa | 2.2V | 00:00:00 | 00:00:00 | 00:00:00 | |
| AA1-15 | 2026-09-02 00:51:30 | 54.66622 | 20.48795 | 246° | 95km/h | 1338m | 8m/s | -42.2°C | 0.1% | 7.8hPa | 2.2V | 00:00:00 | 00:00:00 | 00:00:00 | |
| AA1-15 | 2026-09-02 00:51:28 | 54.66652 | 20.48878 | 241° | 106km/h | 1352m | 1m/s | -42.2°C | 0.1% | 7.9hPa | 2.2V | 00:00:00 | 00:00:00 | 00:00:00 | |
| AA1-15 | 2026-09-02 00:51:26 | 54.66692 | 20.48992 | 237° | 97km/h | 1427m | 9.3m/s | -42.2°C | 0.1% | 7.9hPa | 2.2V | 00:00:00 | 00:00:00 | 00:00:00 | |
| AA1-15 | 2026-09-02 00:51:25 | 54.66706 | 20.49043 | 237° | 88km/h | 1456m | 12.6m/s | -42.3°C | 0.1% | 7.9hPa | 2.2V | 00:00:00 | 00:00:00 | 00:00:00 | |
| AA1-15 | 2026-09-02 00:51:24 | 54.66719 | 20.49083 | 232° | 91km/h | 1460m | 13.6m/s | -42.3°C | 0% | 7.9hPa | 2.2V | 00:00:00 | 00:00:00 | 00:00:00 | |
| AA1-15 | 2026-09-02 00:51:22 | 54.66747 | 20.49136 | 234° | 93km/h | 1419m | 11.9m/s | -42.4°C | 0.1% | 7.9hPa | 2.2V | 00:00:00 | 00:00:00 | 00:00:00 | |
| AA1-15 | 2026-09-02 00:51:21 | 54.66760 | 20.49159 | 232° | 95km/h | 1394m | 10.2m/s | -42.4°C | 0% | 7.9hPa | 2.2V | 00:00:00 | 00:00:00 | 00:00:00 | |
| AA1-15 | 2026-09-02 00:51:20 | 54.66771 | 20.49172 | 229° | 99km/h | 1356m | 7.5m/s | -42.5°C | 0.1% | 7.9hPa | 2.2V | 00:00:00 | 00:00:00 | 00:00:00 | |
| AA1-15 | 2026-09-02 00:51:19 | 54.66785 | 20.49189 | 226° | 102km/h | 1329m | 5.1m/s | -42.5°C | 0.1% | 7.9hPa | 2.2V | 00:00:00 | 00:00:00 | 00:00:00 | |
| AA1-15 | 2026-09-02 00:51:17 | 54.66821 | 20.49253 | 222° | 97km/h | 1319m | 8.8m/s | -42.6°C | 0.1% | 8hPa | 2.2V | 00:00:00 | 00:00:00 | 00:00:00 | |
| AA1-15 | 2026-09-02 00:51:15 | 54.66855 | 20.49304 | 219° | 95km/h | 1290m | 13.5m/s | -42.7°C | 0.1% | 8hPa | 2.2V | 00:00:00 | 00:00:00 | 00:00:00 | |
| AA1-15 | 2026-09-02 00:51:14 | 54.66872 | 20.49326 | 219° | 99km/h | 1270m | 7.8m/s | -42.8°C | 0.1% | 8hPa | 2.2V | 00:00:00 | 00:00:00 | 00:00:00 | |
| AA1-15 | 2026-09-02 00:51:12 | 54.66904 | 20.49375 | 217° | 91km/h | 1233m | 8.4m/s | -42.9°C | 0.1% | 8hPa | 2.2V | 00:00:00 | 00:00:00 | 00:00:00 | |
| AA1-15 | 2026-09-02 00:51:10 | 54.66942 | 20.49423 | 214° | 93km/h | 1183m | 4.8m/s | -43°C | 0.1% | 8hPa | 2.2V | 00:00:00 | 00:00:00 | 00:00:00 | |
| AA1-15 | 2026-09-02 00:51:05 | 54.67041 | 20.49489 | 206° | 95km/h | 1072m | 9.9m/s | -43.1°C | 0.1% | 8.1hPa | 2.2V | 00:00:00 | 00:00:00 | 00:00:00 | |
| AA1-15 | 2026-09-02 00:51:03 | 54.67078 | 20.49498 | 202° | 100km/h | 983m | 10m/s | -43.1°C | 0.1% | 8.1hPa | 2.2V | 00:00:00 | 00:00:00 | 00:00:00 | |
| AA1-15 | 2026-09-02 00:50:54 | 54.92011 | 19.89537 | 0° | 0km/h | 159087m | 0m/s | -42.9°C | 0.1% | 8.2hPa | 2.2V | 00:00:00 | 00:00:00 | 00:00:00 | |
| AA1-15 | 2026-09-02 00:50:33 | 54.92107 | 19.89675 | 269° | 9km/h | 159087m | 13.5m/s | -43.2°C | 0.1% | 8.4hPa | 2.2V | 00:00:00 | 00:00:00 | 00:00:00 | |
| AA1-15 | 2026-09-02 00:49:50 | 54.92100 | 19.89951 | 271° | 13km/h | 2237m | 8.5m/s | -43°C | 0.1% | 8.8hPa | 2.2V | 00:00:00 | 00:00:00 | 00:00:00 | |
| AA1-15 | 2026-09-02 00:49:35 | 54.92063 | 19.90150 | 269° | 13km/h | 2114m | 9.6m/s | -43.6°C | 0.1% | 9.1hPa | 2.2V | 00:00:00 | 00:00:00 | 00:00:00 | |
| AA1-15 | 2026-09-02 00:49:11 | 54.92062 | 19.90231 | 271° | 13km/h | 1931m | 7.9m/s | -43.8°C | 0.1% | 9.3hPa | 2.2V | 00:00:00 | 00:00:00 | 00:00:00 | |
| AA1-15 | 2026-09-02 00:48:59 | 54.92091 | 19.90266 | 270° | 15km/h | 1774m | 7.8m/s | -44.1°C | 0.1% | 9.4hPa | 2.2V | 00:00:00 | 00:00:00 | 00:00:00 | |
| AA1-15 | 2026-09-02 00:48:53 | 54.92100 | 19.90308 | 280° | 16km/h | 1730m | 6.2m/s | -44.1°C | 0.1% | 9.4hPa | 2.2V | 00:00:00 | 00:00:00 | 00:00:00 | |
| AA1-15 | 2026-09-02 00:48:50 | 54.92097 | 19.90322 | 272° | 16km/h | 1673m | 8.2m/s | -44.2°C | 0.1% | 9.4hPa | 2.2V | 00:00:00 | 00:00:00 | 00:00:00 | |
| AA1-15 | 2026-09-02 00:48:33 | 54.92166 | 19.89258 | 208° | 1090km/h | 159087m | 77.6m/s | -44.3°C | 0.2% | 9.6hPa | 2.2V | 00:00:00 | 00:00:00 | 00:00:00 | |
| AA1-15 | 2026-09-02 00:48:20 | 54.90177 | 19.90230 | 109° | 95km/h | 1269m | 2.5m/s | -44.3°C | 0.2% | 9.8hPa | 2.2V | 00:00:00 | 00:00:00 | 00:00:00 | |
| AA1-15 | 2026-09-02 00:48:05 | 54.71978 | 20.35727 | 0° | 0km/h | 159087m | 0m/s | -44.2°C | 0.3% | 9.9hPa | 2.2V | 00:00:00 | 00:00:00 | 00:00:00 | |
| AA1-15 | 2026-09-02 00:47:53 | 54.71978 | 20.35727 | 0° | 0km/h | 159087m | 0m/s | -43.9°C | 0.2% | 10hPa | 2.2V | 00:00:00 | 00:00:00 | 00:00:00 | |
| AA1-15 | 2026-09-02 00:47:42 | 54.71978 | 20.35727 | 0° | 0km/h | 159087m | 0m/s | -43.8°C | 0.3% | 10.2hPa | 2.2V | 00:00:00 | 00:00:00 | 00:00:00 | |
| AA1-15 | 2026-09-02 00:47:32 | 54.71950 | 20.35601 | 69° | 308km/h | 159087m | -2.9m/s | -43.5°C | 0.3% | 10.3hPa | 2.2V | 00:00:00 | 00:00:00 | 00:00:00 | |
| AA1-15 | 2026-09-02 00:47:21 | 54.71559 | 20.33775 | 263° | 16km/h | 159087m | 4.5m/s | -43.5°C | 0.3% | 10.4hPa | 2.2V | 00:00:00 | 00:00:00 | 00:00:00 | |
| AA1-15 | 2026-09-02 00:47:09 | 54.71577 | 20.33833 | 296° | 11km/h | 159087m | 7m/s | -43.5°C | 0.3% | 10.5hPa | 2.2V | 00:00:00 | 00:00:00 | 00:00:00 | |
| AA1-15 | 2026-09-02 00:46:58 | 54.71505 | 20.33870 | 255° | 7km/h | 159087m | 14.2m/s | -43.6°C | 0.3% | 10.6hPa | 2.2V | 00:00:00 | 00:00:00 | 00:00:00 | |
| AA1-15 | 2026-09-02 00:46:48 | 54.71508 | 20.33873 | 255° | 7km/h | 1558m | 14.2m/s | -43.4°C | 0.3% | 10.8hPa | 2.2V | 00:00:00 | 00:00:00 | 00:00:00 | |
| AA1-15 | 2026-09-02 00:46:42 | 54.67673 | 20.49656 | 0° | 0km/h | 159087m | 0m/s | -43.4°C | 0.3% | 10.8hPa | 2.2V | 00:00:00 | 00:00:00 | 00:00:00 | |
| AA1-15 | 2026-09-02 00:46:31 | 54.67673 | 20.49656 | 0° | 0km/h | 159087m | 0m/s | -43.6°C | 0.3% | 11hPa | 2.2V | 00:00:00 | 00:00:00 | 00:00:00 | |
| AA1-15 | 2026-09-02 00:46:21 | 54.67673 | 20.49656 | 0° | 0km/h | 159087m | 0m/s | -43.9°C | 0.3% | 11.1hPa | 2.2V | 00:00:00 | 00:00:00 | 00:00:00 | |
| AA1-15 | 2026-09-02 00:46:11 | 54.67673 | 20.49656 | 0° | 0km/h | 159087m | 0m/s | -44.1°C | 0.4% | 11.3hPa | 2.2V | 00:00:00 | 00:00:00 | 00:00:00 | |
| AA1-15 | 2026-09-02 00:46:00 | 54.67673 | 20.49656 | 0° | 0km/h | 159087m | 0m/s | -44.1°C | 0.4% | 11.4hPa | 2.2V | 00:00:00 | 00:00:00 | 00:00:00 | |
| AA1-15 | 2026-09-02 00:45:50 | 54.67673 | 20.49656 | 0° | 0km/h | 159087m | 0m/s | -44.2°C | 0.4% | 11.5hPa | 2.2V | 00:00:00 | 00:00:00 | 00:00:00 | |
| AA1-15 | 2026-09-02 00:45:39 | 54.67673 | 20.49656 | 0° | 0km/h | 159087m | 0m/s | -44.3°C | 0.4% | 11.7hPa | 2.2V | 00:00:00 | 00:00:00 | 00:00:00 | |
| AA1-15 | 2026-09-02 00:45:28 | 54.67673 | 20.49656 | 0° | 0km/h | 159087m | 0m/s | -44.1°C | 0.4% | 11.8hPa | 2.2V | 00:00:00 | 00:00:00 | 00:00:00 | |
| AA1-15 | 2026-09-02 00:45:18 | 54.67673 | 20.49656 | 0° | 0km/h | 159087m | 0m/s | -44.2°C | 0.4% | 11.9hPa | 2.2V | 00:00:00 | 00:00:00 | 00:00:00 | |
| AA1-15 | 2026-09-02 00:45:07 | 54.67673 | 20.49656 | 0° | 0km/h | 159087m | 0m/s | -44°C | 0.4% | 12.1hPa | 2.2V | 00:00:00 | 00:00:00 | 00:00:00 | |
| AA1-15 | 2026-09-02 00:44:25 | 54.67769 | 20.46619 | 355° | 20km/h | 2692m | 6.6m/s | -43.4°C | 0.4% | 12.7hPa | 2.2V | 00:00:00 | 00:00:00 | 00:00:00 | |
| AA1-15 | 2026-09-02 00:43:52 | 54.67645 | 20.46621 | 351° | 13km/h | 2441m | 7.4m/s | -44°C | 0.3% | 13.1hPa | 2.2V | 00:00:00 | 00:00:00 | 00:00:00 | |
| AA1-15 | 2026-09-02 00:43:33 | 54.67582 | 20.46603 | 4° | 16km/h | 2274m | 8.5m/s | -44.2°C | 0.3% | 13.3hPa | 2.2V | 00:00:00 | 00:00:00 | 00:00:00 | |
| AA1-15 | 2026-09-02 00:43:00 | 54.67494 | 20.46568 | 9° | 11km/h | 1991m | 9.5m/s | -45.6°C | 0.3% | 13.8hPa | 2.2V | 00:00:00 | 00:00:00 | 00:00:00 | |
| AA1-15 | 2026-09-02 00:42:55 | 54.67488 | 20.46566 | 8° | 13km/h | 1958m | 8.2m/s | -45.7°C | 0.3% | 13.9hPa | 2.2V | 00:00:00 | 00:00:00 | 00:00:00 | |
| AA1-15 | 2026-09-02 00:42:53 | 54.67471 | 20.46566 | 7° | 15km/h | 1943m | 9.2m/s | -45.7°C | 0.2% | 13.9hPa | 2.2V | 00:00:00 | 00:00:00 | 00:00:00 | |
| AA1-15 | 2026-09-02 00:42:51 | 54.67467 | 20.46567 | 5° | 16km/h | 1931m | 8.2m/s | -45.8°C | 0.3% | 13.9hPa | 2.2V | 00:00:00 | 00:00:00 | 00:00:00 | |
| AA1-15 | 2026-09-02 00:42:50 | 54.67463 | 20.46571 | 1° | 16km/h | 1919m | 8.4m/s | -45.8°C | 0.3% | 13.9hPa | 2.2V | 00:00:00 | 00:00:00 | 00:00:00 | |
| AA1-15 | 2026-09-02 00:42:47 | 54.67465 | 20.46571 | 355° | 15km/h | 1901m | 8.2m/s | -45.8°C | 0.2% | 14hPa | 2.2V | 00:00:00 | 00:00:00 | 00:00:00 | |
| AA1-15 | 2026-09-02 00:42:43 | 54.67411 | 20.46581 | 359° | 93km/h | 1884m | 7.2m/s | -45.9°C | 0.2% | 14hPa | 2.2V | 00:00:00 | 00:00:00 | 00:00:00 | |
| AA1-15 | 2026-09-02 00:42:42 | 54.67347 | 20.46605 | 352° | 104km/h | 1889m | 5.9m/s | -45.9°C | 0.3% | 14.1hPa | 2.2V | 00:00:00 | 00:00:00 | 00:00:00 | |
| AA1-15 | 2026-09-02 00:42:40 | 54.67318 | 20.46616 | 355° | 99km/h | 1886m | 7.5m/s | -45.9°C | 0.3% | 14.1hPa | 2.2V | 00:00:00 | 00:00:00 | 00:00:00 | |
| AA1-15 | 2026-09-02 00:42:38 | 54.67274 | 20.46621 | 355° | 88km/h | 1862m | 9.8m/s | -45.9°C | 0.2% | 14.1hPa | 2.2V | 00:00:00 | 00:00:00 | 00:00:00 | |
| AA1-15 | 2026-09-02 00:42:36 | 54.67232 | 20.46621 | 350° | 91km/h | 1838m | 8m/s | -45.9°C | 0.3% | 14.1hPa | 2.2V | 00:00:00 | 00:00:00 | 00:00:00 | |
| AA1-15 | 2026-09-02 00:42:34 | 54.67187 | 20.46633 | 345° | 93km/h | 1824m | 9.9m/s | -45.9°C | 0.2% | 14.1hPa | 2.2V | 00:00:00 | 00:00:00 | 00:00:00 | |
| AA1-15 | 2026-09-02 00:42:33 | 54.67144 | 20.46656 | 340° | 99km/h | 1810m | 4.8m/s | -46°C | 0.2% | 14.2hPa | 2.2V | 00:00:00 | 00:00:00 | 00:00:00 | |
| AA1-15 | 2026-09-02 00:42:32 | 54.67119 | 20.46674 | 340° | 97km/h | 1805m | 8.3m/s | -45.9°C | 0.2% | 14.2hPa | 2.2V | 00:00:00 | 00:00:00 | 00:00:00 | |
| AA1-15 | 2026-09-02 00:42:30 | 54.67099 | 20.46686 | 338° | 86km/h | 1796m | 8.2m/s | -46°C | 0.3% | 14.2hPa | 2.2V | 00:00:00 | 00:00:00 | 00:00:00 | |
| AA1-15 | 2026-09-02 00:42:29 | 54.67079 | 20.46698 | 338° | 99km/h | 1787m | 8m/s | -45.9°C | 0.2% | 14.2hPa | 2.2V | 00:00:00 | 00:00:00 | 00:00:00 | |
| AA1-15 | 2026-09-02 00:42:28 | 54.67062 | 20.46713 | 334° | 97km/h | 1775m | 8.3m/s | -45.9°C | 0.2% | 14.2hPa | 2.2V | 00:00:00 | 00:00:00 | 00:00:00 | |
| AA1-15 | 2026-09-02 00:42:25 | 54.67005 | 20.46768 | 332° | 89km/h | 1735m | 8.3m/s | -45.9°C | 0.2% | 14.3hPa | 2.2V | 00:00:00 | 00:00:00 | 00:00:00 | |
| AA1-15 | 2026-09-02 00:42:24 | 54.66981 | 20.46788 | 327° | 93km/h | 1720m | 8.1m/s | -45.9°C | 0.2% | 14.3hPa | 2.2V | 00:00:00 | 00:00:00 | 00:00:00 | |
| AA1-15 | 2026-09-02 00:42:23 | 54.66933 | 20.46831 | 327° | 95km/h | 1686m | 8.1m/s | -45.9°C | 0.3% | 14.3hPa | 2.2V | 00:00:00 | 00:00:00 | 00:00:00 | |
| AA1-15 | 2026-09-02 00:42:22 | 54.66911 | 20.46856 | 325° | 100km/h | 1675m | 10.5m/s | -45.9°C | 0.2% | 14.3hPa | 2.2V | 00:00:00 | 00:00:00 | 00:00:00 | |
| AA1-15 | 2026-09-02 00:42:20 | 54.66890 | 20.46884 | 326° | 99km/h | 1670m | 11m/s | -45.9°C | 0.2% | 14.3hPa | 2.2V | 00:00:00 | 00:00:00 | 00:00:00 | |
| AA1-15 | 2026-09-02 00:42:19 | 54.66849 | 20.46944 | 319° | 97km/h | 1662m | 8.9m/s | -45.9°C | 0.2% | 14.4hPa | 2.2V | 00:00:00 | 00:00:00 | 00:00:00 | |
| AA1-15 | 2026-09-02 00:42:18 | 54.66835 | 20.46965 | 318° | 93km/h | 1651m | 9m/s | -45.9°C | 0.2% | 14.4hPa | 2.2V | 00:00:00 | 00:00:00 | 00:00:00 | |
| AA1-15 | 2026-09-02 00:42:17 | 54.66824 | 20.46987 | 316° | 89km/h | 1637m | 8.8m/s | -45.9°C | 0.2% | 14.4hPa | 2.2V | 00:00:00 | 00:00:00 | 00:00:00 | |
| AA1-15 | 2026-09-02 00:42:15 | 54.66800 | 20.47030 | 313° | 99km/h | 1612m | 9.4m/s | -45.9°C | 0.2% | 14.4hPa | 2.2V | 00:00:00 | 00:00:00 | 00:00:00 | |
| AA1-15 | 2026-09-02 00:42:13 | 54.66783 | 20.47065 | 312° | 97km/h | 1602m | 7.5m/s | -45.9°C | 0.2% | 14.5hPa | 2.2V | 00:00:00 | 00:00:00 | 00:00:00 | |
| AA1-15 | 2026-09-02 00:42:09 | 54.66719 | 20.47215 | 302° | 97km/h | 1598m | 5.7m/s | -45.8°C | 0.2% | 14.5hPa | 2.2V | 00:00:00 | 00:00:00 | 00:00:00 | |
| AA1-15 | 2026-09-02 00:42:08 | 54.66703 | 20.47255 | 305° | 99km/h | 1594m | 8.6m/s | -45.8°C | 0.2% | 14.5hPa | 2.2V | 00:00:00 | 00:00:00 | 00:00:00 | |
| AA1-15 | 2026-09-02 00:42:06 | 54.66670 | 20.47340 | 301° | 100km/h | 1589m | 6.6m/s | -45.8°C | 0.2% | 14.6hPa | 2.2V | 00:00:00 | 00:00:00 | 00:00:00 | |
| AA1-15 | 2026-09-02 00:42:04 | 54.66639 | 20.47400 | 300° | 99km/h | 1581m | 6.8m/s | -45.8°C | 0.2% | 14.6hPa | 2.2V | 00:00:00 | 00:00:00 | 00:00:00 | |
| AA1-15 | 2026-09-02 00:42:03 | 54.66626 | 20.47436 | 297° | 97km/h | 1571m | 6.3m/s | -45.8°C | 0.2% | 14.6hPa | 2.2V | 00:00:00 | 00:00:00 | 00:00:00 | |
| AA1-15 | 2026-09-02 00:42:01 | 54.66604 | 20.47511 | 295° | 95km/h | 1551m | 10.2m/s | -45.8°C | 0.2% | 14.6hPa | 2.2V | 00:00:00 | 00:00:00 | 00:00:00 | |
| AA1-15 | 2026-09-02 00:42:00 | 54.66583 | 20.47592 | 290° | 93km/h | 1525m | 9.3m/s | -45.8°C | 0.2% | 14.7hPa | 2.2V | 00:00:00 | 00:00:00 | 00:00:00 | |
| AA1-15 | 2026-09-02 00:41:57 | 54.66565 | 20.47676 | 286° | 97km/h | 1509m | 7.2m/s | -45.8°C | 0.1% | 14.7hPa | 2.2V | 00:00:00 | 00:00:00 | 00:00:00 | |
| AA1-15 | 2026-09-02 00:41:56 | 54.66557 | 20.47717 | 287° | 95km/h | 1504m | 7.5m/s | -45.8°C | 0.2% | 14.7hPa | 2.2V | 00:00:00 | 00:00:00 | 00:00:00 | |
| AA1-15 | 2026-09-02 00:41:55 | 54.66539 | 20.47812 | 281° | 97km/h | 1487m | 8.5m/s | -45.8°C | 0.1% | 14.7hPa | 2.2V | 00:00:00 | 00:00:00 | 00:00:00 | |
| AA1-15 | 2026-09-02 00:41:53 | 54.66533 | 20.47859 | 280° | 93km/h | 1475m | 9.3m/s | -45.8°C | 0.1% | 14.8hPa | 2.2V | 00:00:00 | 00:00:00 | 00:00:00 | |
| AA1-15 | 2026-09-02 00:41:52 | 54.66534 | 20.47920 | 278° | 91km/h | 1466m | 6.6m/s | -45.8°C | 0.1% | 14.8hPa | 2.2V | 00:00:00 | 00:00:00 | 00:00:00 | |
| AA1-15 | 2026-09-02 00:41:49 | 54.66523 | 20.48041 | 276° | 97km/h | 1437m | 8.7m/s | -45.8°C | 0.1% | 14.8hPa | 2.2V | 00:00:00 | 00:00:00 | 00:00:00 | |
| AA1-15 | 2026-09-02 00:41:45 | 54.66525 | 20.48173 | 267° | 95km/h | 1402m | 10.3m/s | -45.8°C | 0.1% | 14.9hPa | 2.2V | 00:00:00 | 00:00:00 | 00:00:00 | |
| AA1-15 | 2026-09-02 00:41:43 | 54.66531 | 20.48258 | 262° | 99km/h | 1392m | 7m/s | -45.8°C | 0.1% | 14.9hPa | 2.2V | 00:00:00 | 00:00:00 | 00:00:00 | |
| AA1-15 | 2026-09-02 00:41:42 | 54.66541 | 20.48284 | 262° | 95km/h | 1394m | 7.9m/s | -45.8°C | 0.1% | 14.9hPa | 2.2V | 00:00:00 | 00:00:00 | 00:00:00 | |
| AA1-15 | 2026-09-02 00:41:40 | 54.66561 | 20.48384 | 261° | 97km/h | 1388m | 7.8m/s | -45.9°C | 0.1% | 15hPa | 2.2V | 00:00:00 | 00:00:00 | 00:00:00 | |
| AA1-15 | 2026-09-02 00:41:39 | 54.66565 | 20.48429 | 260° | 99km/h | 1382m | 9.2m/s | -45.9°C | 0.1% | 15hPa | 2.2V | 00:00:00 | 00:00:00 | 00:00:00 | |
| AA1-15 | 2026-09-02 00:41:36 | 54.66573 | 20.48506 | 254° | 97km/h | 1363m | 8.2m/s | -46°C | 0.1% | 15hPa | 2.2V | 00:00:00 | 00:00:00 | 00:00:00 | |
| AA1-15 | 2026-09-02 00:41:35 | 54.66577 | 20.48549 | 251° | 97km/h | 1352m | 8.5m/s | -46.1°C | 0.1% | 15hPa | 2.2V | 00:00:00 | 00:00:00 | 00:00:00 | |
| AA1-15 | 2026-09-02 00:41:33 | 54.66579 | 20.48695 | 249° | 97km/h | 1352m | 7.8m/s | -46.3°C | 0.1% | 15.1hPa | 2.2V | 00:00:00 | 00:00:00 | 00:00:00 | |
| AA1-15 | 2026-09-02 00:41:30 | 54.66594 | 20.48762 | 246° | 95km/h | 1332m | 8.6m/s | -46.4°C | 0% | 15.1hPa | 2.2V | 00:00:00 | 00:00:00 | 00:00:00 | |
| AA1-15 | 2026-09-02 00:41:29 | 54.66624 | 20.48825 | 240° | 97km/h | 1311m | 9.5m/s | -46.5°C | 0% | 15.1hPa | 2.2V | 00:00:00 | 00:00:00 | 00:00:00 | |
| AA1-15 | 2026-09-02 00:41:27 | 54.66666 | 20.48883 | 237° | 97km/h | 1306m | 9.2m/s | -46.4°C | 0% | 15.2hPa | 2.2V | 00:00:00 | 00:00:00 | 00:00:00 | |
| AA1-15 | 2026-09-02 00:41:25 | 54.66686 | 20.48917 | 237° | 95km/h | 1300m | 8.6m/s | -46.5°C | 0% | 15.2hPa | 2.2V | 00:00:00 | 00:00:00 | 00:00:00 | |
| AA1-15 | 2026-09-02 00:41:22 | 54.66723 | 20.49028 | 234° | 93km/h | 1274m | 7.5m/s | -46.5°C | 0% | 15.2hPa | 2.2V | 00:00:00 | 00:00:00 | 00:00:00 | |
| AA1-15 | 2026-09-02 00:41:21 | 54.66736 | 20.49061 | 233° | 97km/h | 1265m | 8.1m/s | -46.5°C | 0% | 15.2hPa | 2.2V | 00:00:00 | 00:00:00 | 00:00:00 | |
| AA1-15 | 2026-09-02 00:41:19 | 54.66769 | 20.49133 | 226° | 99km/h | 1238m | 8.8m/s | -46.5°C | 0% | 15.3hPa | 2.2V | 00:00:00 | 00:00:00 | 00:00:00 | |
| AA1-15 | 2026-09-02 00:41:18 | 54.66807 | 20.49208 | 222° | 99km/h | 1205m | 8.3m/s | -46.5°C | 0% | 15.3hPa | 2.2V | 00:00:00 | 00:00:00 | 00:00:00 | |
| AA1-15 | 2026-09-02 00:41:16 | 54.66840 | 20.49264 | 222° | 91km/h | 1183m | 8.7m/s | -46.5°C | 0% | 15.4hPa | 2.2V | 00:00:00 | 00:00:00 | 00:00:00 | |
| AA1-15 | 2026-09-02 00:41:15 | 54.66857 | 20.49290 | 218° | 93km/h | 1170m | 9.1m/s | -46.6°C | 0% | 15.4hPa | 2.2V | 00:00:00 | 00:00:00 | 00:00:00 | |
| AA1-15 | 2026-09-02 00:41:12 | 54.66896 | 20.49339 | 217° | 95km/h | 1150m | 8.3m/s | -46.6°C | 0% | 15.4hPa | 2.2V | 00:00:00 | 00:00:00 | 00:00:00 | |
| AA1-15 | 2026-09-02 00:41:11 | 54.66940 | 20.49385 | 214° | 97km/h | 1132m | 5.7m/s | -46.6°C | 0% | 15.4hPa | 2.2V | 00:00:00 | 00:00:00 | 00:00:00 | |
| AA1-15 | 2026-09-02 00:41:08 | 54.67008 | 20.49445 | 205° | 95km/h | 1105m | 10.9m/s | -46.6°C | 0% | 15.5hPa | 2.2V | 00:00:00 | 00:00:00 | 00:00:00 | |
| AA1-15 | 2026-09-02 00:40:34 | 54.95211 | 19.26332 | 267° | 13km/h | 2488m | 8.4m/s | -49°C | 0% | 16hPa | 2.2V | 00:00:00 | 00:00:00 | 00:00:00 | |
| AA1-15 | 2026-09-02 00:40:23 | 54.95207 | 19.26381 | 187° | 26km/h | 2382m | 7.2m/s | -49.3°C | 0% | 16.2hPa | 2.2V | 00:00:00 | 00:00:00 | 00:00:00 | |
| AA1-15 | 2026-09-02 00:40:13 | 54.95215 | 19.26446 | 267° | 13km/h | 2253m | 8.4m/s | -49.5°C | 0% | 16.4hPa | 2.2V | 00:00:00 | 00:00:00 | 00:00:00 | |
| AA1-15 | 2026-09-02 00:40:03 | 54.95101 | 19.26613 | 272° | 15km/h | 159087m | 8.1m/s | -49.4°C | 0% | 16.6hPa | 2.2V | 00:00:00 | 00:00:00 | 00:00:00 | |
| AA1-15 | 2026-09-02 00:39:50 | 54.95108 | 19.26654 | 296° | 38km/h | 1977m | -0.6m/s | -49.6°C | 0% | 16.8hPa | 2.2V | 00:00:00 | 00:00:00 | 00:00:00 | |
| AA1-15 | 2026-09-02 00:39:47 | 54.95071 | 19.26694 | 293° | 22km/h | 1997m | 5.8m/s | -49.6°C | 0% | 16.8hPa | 2.2V | 00:00:00 | 00:00:00 | 00:00:00 | |
| AA1-15 | 2026-09-02 00:39:44 | 54.95096 | 19.26676 | 254° | 15km/h | 1926m | 8.8m/s | -49.7°C | 0% | 16.9hPa | 2.2V | 00:00:00 | 00:00:00 | 00:00:00 | |
| AA1-15 | 2026-09-02 00:39:42 | 54.95110 | 19.26700 | 273° | 13km/h | 1876m | 8.4m/s | -49.7°C | 0% | 17hPa | 2.2V | 00:00:00 | 00:00:00 | 00:00:00 | |
| AA1-15 | 2026-09-02 00:39:40 | 54.95120 | 19.26700 | 270° | 13km/h | 1852m | 7.9m/s | -49.7°C | 0% | 17hPa | 2.2V | 00:00:00 | 00:00:00 | 00:00:00 | |
| AA1-15 | 2026-09-02 00:39:36 | 54.95128 | 19.26710 | 266° | 13km/h | 1827m | 8.1m/s | -49.7°C | 0% | 17hPa | 2.2V | 00:00:00 | 00:00:00 | 00:00:00 | |
| AA1-15 | 2026-09-02 00:39:35 | 54.95128 | 19.26719 | 276° | 18km/h | 1824m | 7.2m/s | -49.7°C | 0% | 17hPa | 2.2V | 00:00:00 | 00:00:00 | 00:00:00 | |
| AA1-15 | 2026-09-02 00:39:33 | 54.95116 | 19.26736 | 270° | 15km/h | 1830m | 8.8m/s | -49.7°C | 0% | 17.1hPa | 2.2V | 00:00:00 | 00:00:00 | 00:00:00 | |
| AA1-15 | 2026-09-02 00:39:32 | 54.95107 | 19.26772 | 273° | 13km/h | 1841m | 9.4m/s | -49.7°C | 0% | 17.1hPa | 2.2V | 00:00:00 | 00:00:00 | 00:00:00 | |
| AA1-15 | 2026-09-02 00:39:30 | 54.95107 | 19.26786 | 270° | 16km/h | 1840m | 8.3m/s | -49.7°C | 0% | 17.1hPa | 2.2V | 00:00:00 | 00:00:00 | 00:00:00 | |
| AA1-15 | 2026-09-02 00:39:29 | 54.95103 | 19.26803 | 286° | 16km/h | 1836m | 5.8m/s | -49.6°C | 0% | 17.2hPa | 2.2V | 00:00:00 | 00:00:00 | 00:00:00 | |
| AA1-15 | 2026-09-02 00:39:26 | 54.95100 | 19.26826 | 280° | 15km/h | 1826m | 4.4m/s | -49.6°C | 0% | 17.2hPa | 2.2V | 00:00:00 | 00:00:00 | 00:00:00 | |
| AA1-15 | 2026-09-02 00:39:24 | 54.95077 | 19.26830 | 269° | 13km/h | 1831m | 8.3m/s | -49.6°C | 0% | 17.2hPa | 2.2V | 00:00:00 | 00:00:00 | 00:00:00 | |
| AA1-15 | 2026-09-02 00:39:23 | 54.95079 | 19.26828 | 257° | 15km/h | 1818m | 9.3m/s | -49.6°C | 0% | 17.2hPa | 2.2V | 00:00:00 | 00:00:00 | 00:00:00 | |
| AA1-15 | 2026-09-02 00:39:19 | 54.95119 | 19.26822 | 263° | 16km/h | 1692m | 9.3m/s | -49.6°C | 0% | 17.3hPa | 2.2V | 00:00:00 | 00:00:00 | 00:00:00 | |
| AA1-15 | 2026-09-02 00:39:17 | 54.95125 | 19.26834 | 269° | 16km/h | 1659m | 7.8m/s | -49.6°C | 0% | 17.4hPa | 2.2V | 00:00:00 | 00:00:00 | 00:00:00 | |
| AA1-15 | 2026-09-02 00:39:14 | 54.95121 | 19.26842 | 230° | 9km/h | 1641m | 11.4m/s | -49.6°C | 0% | 17.4hPa | 2.2V | 00:00:00 | 00:00:00 | 00:00:00 | |
| AA1-15 | 2026-09-02 00:39:12 | 54.95122 | 19.26852 | 246° | 11km/h | 1615m | 9.9m/s | -49.6°C | 0% | 17.4hPa | 2.2V | 00:00:00 | 00:00:00 | 00:00:00 | |
| AA1-15 | 2026-09-02 00:39:10 | 54.95120 | 19.26886 | 275° | 13km/h | 1580m | 8.4m/s | -49.7°C | 0% | 17.5hPa | 2.2V | 00:00:00 | 00:00:00 | 00:00:00 | |
| AA1-15 | 2026-09-02 00:39:09 | 54.95126 | 19.26893 | 269° | 15km/h | 1562m | 8.2m/s | -49.7°C | 0% | 17.5hPa | 2.2V | 00:00:00 | 00:00:00 | 00:00:00 | |
| AA1-15 | 2026-09-02 00:39:05 | 54.95134 | 19.26913 | 275° | 15km/h | 1534m | 7.5m/s | -49.8°C | 0% | 17.6hPa | 2.2V | 00:00:00 | 00:00:00 | 00:00:00 | |
| AA1-15 | 2026-09-02 00:39:04 | 54.95121 | 19.26930 | 275° | 18km/h | 1545m | 7.1m/s | -49.8°C | 0% | 17.6hPa | 2.2V | 00:00:00 | 00:00:00 | 00:00:00 | |
| AA1-15 | 2026-09-02 00:39:02 | 54.95062 | 19.26994 | 269° | 16km/h | 1635m | 8.6m/s | -49.8°C | 0% | 17.6hPa | 2.2V | 00:00:00 | 00:00:00 | 00:00:00 | |
| AA1-15 | 2026-09-02 00:39:01 | 54.95008 | 19.27097 | 281° | 15km/h | 1773m | 6.4m/s | -49.9°C | 0% | 17.7hPa | 2.2V | 00:00:00 | 00:00:00 | 00:00:00 | |
| AA1-15 | 2026-09-02 00:39:00 | 54.94649 | 19.27951 | 271° | 16km/h | 2472m | 7.5m/s | -49.9°C | 0% | 17.7hPa | 2.2V | 00:00:00 | 00:00:00 | 00:00:00 | |
| AA1-15 | 2026-09-02 00:38:49 | 38.31854 | 53.57304 | 0° | 0km/h | 159087m | 0m/s | -49.9°C | 0% | 17.8hPa | 2.2V | 00:00:00 | 00:00:00 | 00:00:00 | |
| AA1-15 | 2026-09-02 00:38:38 | 54.92080 | 19.89551 | 0° | 0km/h | 159087m | 0m/s | -49.9°C | 0% | 18.1hPa | 2.2V | 00:00:00 | 00:00:00 | 00:00:00 | |
| AA1-15 | 2026-09-02 00:38:27 | 54.92080 | 19.89551 | 0° | 0km/h | 159087m | 0m/s | -49.8°C | 0% | 18.2hPa | 2.2V | 00:00:00 | 00:00:00 | 00:00:00 | |
| AA1-15 | 2026-09-02 00:38:17 | 54.92080 | 19.89551 | 0° | 0km/h | 159087m | 0m/s | -49.8°C | 0% | 18.4hPa | 2.2V | 00:00:00 | 00:00:00 | 00:00:00 | |
| AA1-15 | 2026-09-02 00:38:07 | 54.92080 | 19.89551 | 0° | 0km/h | 159087m | 0m/s | -50°C | 0% | 18.6hPa | 2.2V | 00:00:00 | 00:00:00 | 00:00:00 | |
| AA1-15 | 2026-09-02 00:37:56 | 54.92080 | 19.89551 | 0° | 0km/h | 159087m | 0m/s | -49.9°C | 0% | 18.8hPa | 2.2V | 00:00:00 | 00:00:00 | 00:00:00 | |
| AA1-15 | 2026-09-02 00:37:46 | 54.92080 | 19.89551 | 0° | 0km/h | 159087m | 0m/s | -50.1°C | 0% | 19hPa | 2.2V | 00:00:00 | 00:00:00 | 00:00:00 | |
| AA1-15 | 2026-09-02 00:37:34 | 54.92080 | 19.89551 | 0° | 0km/h | 159087m | 0m/s | -50.3°C | 0% | 19.2hPa | 2.2V | 00:00:00 | 00:00:00 | 00:00:00 | |
| AA1-15 | 2026-09-02 00:37:23 | 54.92080 | 19.89551 | 0° | 0km/h | 159087m | 0m/s | -50.5°C | 0% | 19.4hPa | 2.2V | 00:00:00 | 00:00:00 | 00:00:00 | |
| AA1-15 | 2026-09-02 00:37:13 | 54.92080 | 19.89551 | 0° | 0km/h | 159087m | 0m/s | -50.5°C | 0% | 19.6hPa | 2.2V | 00:00:00 | 00:00:00 | 00:00:00 | |
| AA1-15 | 2026-09-02 00:37:02 | 54.92080 | 19.89551 | 0° | 0km/h | 159087m | 0m/s | -50.4°C | 0% | 19.8hPa | 2.2V | 00:00:00 | 00:00:00 | 00:00:00 | |
| AA1-15 | 2026-09-02 00:36:51 | 54.92080 | 19.89551 | 0° | 0km/h | 159087m | 0m/s | -50.4°C | 0% | 20hPa | 2.2V | 00:00:00 | 00:00:00 | 00:00:00 | |
| AA1-15 | 2026-09-02 00:36:41 | 54.92080 | 19.89551 | 0° | 0km/h | 159087m | 0m/s | -50.4°C | 0% | 20.2hPa | 2.2V | 00:00:00 | 00:00:00 | 00:00:00 | |
| AA1-15 | 2026-09-02 00:36:30 | 54.92080 | 19.89551 | 0° | 0km/h | 159087m | 0m/s | -50.2°C | 0% | 20.4hPa | 2.2V | 00:00:00 | 00:00:00 | 00:00:00 | |
| AA1-15 | 2026-09-02 00:36:19 | 54.92080 | 19.89551 | 0° | 0km/h | 159087m | 0m/s | -50.1°C | 0% | 20.6hPa | 2.2V | 00:00:00 | 00:00:00 | 00:00:00 | |
| AA1-15 | 2026-09-02 00:36:08 | 54.92080 | 19.89551 | 0° | 0km/h | 159087m | 0m/s | -50.1°C | 0% | 20.8hPa | 2.2V | 00:00:00 | 00:00:00 | 00:00:00 | |
| AA1-15 | 2026-09-02 00:35:58 | 54.92080 | 19.89551 | 0° | 0km/h | 159087m | 0m/s | -50.3°C | 0% | 21hPa | 2.2V | 00:00:00 | 00:00:00 | 00:00:00 | |
| AA1-15 | 2026-09-02 00:35:47 | 54.92080 | 19.89551 | 0° | 0km/h | 159087m | 0m/s | -50.4°C | 0% | 21.3hPa | 2.2V | 00:00:00 | 00:00:00 | 00:00:00 | |
| AA1-15 | 2026-09-02 00:35:37 | 54.92080 | 19.89551 | 0° | 0km/h | 159087m | 0m/s | -50.5°C | 0% | 21.5hPa | 2.2V | 00:00:00 | 00:00:00 | 00:00:00 | |
| AA1-15 | 2026-09-02 00:34:53 | 54.92080 | 19.89551 | 0° | 0km/h | 159087m | 0m/s | -50.6°C | 0% | 22.4hPa | 2.2V | 00:00:00 | 00:00:00 | 00:00:00 | |
| AA1-15 | 2026-09-02 00:34:31 | 54.92080 | 19.89551 | 0° | 0km/h | 159087m | 0m/s | -50.7°C | 0.1% | 22.9hPa | 2.2V | 00:00:00 | 00:00:00 | 00:00:00 | |
| AA1-15 | 2026-09-02 00:34:19 | 54.92080 | 19.89551 | 0° | 0km/h | 159087m | 0m/s | -50.7°C | 0.1% | 23.1hPa | 2.2V | 00:00:00 | 00:00:00 | 00:00:00 | |
| AA1-15 | 2026-09-02 00:33:25 | 54.92080 | 19.89551 | 0° | 0km/h | 159087m | 0m/s | -50.5°C | 0.2% | 24.4hPa | 2.2V | 00:00:00 | 00:00:00 | 00:00:00 | |
| AA1-15 | 2026-09-02 00:33:14 | 54.92080 | 19.89551 | 0° | 0km/h | 159087m | 0m/s | -50.3°C | 0.2% | 24.6hPa | 2.2V | 00:00:00 | 00:00:00 | 00:00:00 | |
| AA1-15 | 2026-09-02 00:33:03 | 54.92083 | 19.89552 | 193° | 11km/h | 159087m | 10.4m/s | -50.2°C | 0.2% | 24.9hPa | 2.2V | 00:00:00 | 00:00:00 | 00:00:00 | |
| AA1-15 | 2026-09-02 00:32:52 | 54.92111 | 19.89564 | 193° | 11km/h | 2624m | 10.4m/s | -50.2°C | 0.2% | 25.1hPa | 2.2V | 00:00:00 | 00:00:00 | 00:00:00 | |
| AA1-15 | 2026-09-02 00:32:42 | 54.92116 | 19.89641 | 291° | 13km/h | 2549m | 8.9m/s | -50.4°C | 0.2% | 25.4hPa | 2.2V | 00:00:00 | 00:00:00 | 00:00:00 | |
| AA1-15 | 2026-09-02 00:32:30 | 54.92107 | 19.89705 | 269° | 16km/h | 2467m | 8m/s | -50.5°C | 0.2% | 25.6hPa | 2.2V | 00:00:00 | 00:00:00 | 00:00:00 | |
| AA1-15 | 2026-09-02 00:32:19 | 54.92113 | 19.89772 | 271° | 13km/h | 2397m | 8.3m/s | -50.7°C | 0.2% | 25.9hPa | 2.2V | 00:00:00 | 00:00:00 | 00:00:00 | |
| AA1-15 | 2026-09-02 00:32:09 | 54.92109 | 19.89833 | 261° | 13km/h | 2302m | 8.4m/s | -50.7°C | 0.2% | 26.1hPa | 2.2V | 00:00:00 | 00:00:00 | 00:00:00 | |
| AA1-15 | 2026-09-02 00:31:58 | 54.92124 | 19.89911 | 272° | 15km/h | 2168m | 8.1m/s | -50.7°C | 0.2% | 26.4hPa | 2.2V | 00:00:00 | 00:00:00 | 00:00:00 | |
| AA1-15 | 2026-09-02 00:31:48 | 54.92121 | 19.90020 | 272° | 13km/h | 2138m | 8.1m/s | -50.7°C | 0.2% | 26.6hPa | 2.2V | 00:00:00 | 00:00:00 | 00:00:00 | |
| AA1-15 | 2026-09-02 00:31:37 | 54.92111 | 19.90052 | 271° | 11km/h | 2086m | 9.3m/s | -50.7°C | 0.2% | 26.9hPa | 2.2V | 00:00:00 | 00:00:00 | 00:00:00 | |
| AA1-15 | 2026-09-02 00:31:26 | 54.92102 | 19.90104 | 270° | 16km/h | 1994m | 8.3m/s | -51°C | 0.2% | 27.2hPa | 2.2V | 00:00:00 | 00:00:00 | 00:00:00 | |
| AA1-15 | 2026-09-02 00:31:24 | 54.92099 | 19.90119 | 271° | 13km/h | 1968m | 8.2m/s | -51.1°C | 0.2% | 27.2hPa | 2.2V | 00:00:00 | 00:00:00 | 00:00:00 | |
| AA1-15 | 2026-09-02 00:31:22 | 54.92100 | 19.90126 | 273° | 13km/h | 1959m | 8.1m/s | -51.1°C | 0.2% | 27.3hPa | 2.2V | 00:00:00 | 00:00:00 | 00:00:00 | |
| AA1-15 | 2026-09-02 00:31:20 | 54.92102 | 19.90142 | 268° | 15km/h | 1941m | 8m/s | -51°C | 0.2% | 27.3hPa | 2.2V | 00:00:00 | 00:00:00 | 00:00:00 | |
| AA1-15 | 2026-09-02 00:31:19 | 54.92104 | 19.90151 | 269° | 13km/h | 1930m | 8.1m/s | -51°C | 0.2% | 27.3hPa | 2.2V | 00:00:00 | 00:00:00 | 00:00:00 | |
| AA1-15 | 2026-09-02 00:31:18 | 54.92105 | 19.90159 | 271° | 13km/h | 1918m | 8.1m/s | -51°C | 0.2% | 27.3hPa | 2.2V | 00:00:00 | 00:00:00 | 00:00:00 | |
| AA1-15 | 2026-09-02 00:31:17 | 54.92107 | 19.90169 | 271° | 13km/h | 1903m | 8m/s | -50.9°C | 0.1% | 27.4hPa | 2.2V | 00:00:00 | 00:00:00 | 00:00:00 | |
| AA1-15 | 2026-09-02 00:31:15 | 54.92104 | 19.90174 | 270° | 16km/h | 1884m | 8.3m/s | -51°C | 0.2% | 27.4hPa | 2.2V | 00:00:00 | 00:00:00 | 00:00:00 | |
| AA1-15 | 2026-09-02 00:31:13 | 54.92102 | 19.90184 | 271° | 16km/h | 1873m | 8.3m/s | -51°C | 0.2% | 27.5hPa | 2.2V | 00:00:00 | 00:00:00 | 00:00:00 | |
| AA1-15 | 2026-09-02 00:31:12 | 54.92102 | 19.90192 | 265° | 13km/h | 1868m | 8.3m/s | -51°C | 0.2% | 27.5hPa | 2.2V | 00:00:00 | 00:00:00 | 00:00:00 | |
| AA1-15 | 2026-09-02 00:31:08 | 54.92100 | 19.90218 | 271° | 13km/h | 1857m | 8.2m/s | -51.1°C | 0.2% | 27.6hPa | 2.2V | 00:00:00 | 00:00:00 | 00:00:00 | |
| AA1-15 | 2026-09-02 00:31:05 | 54.92099 | 19.90241 | 276° | 13km/h | 1886m | 6.8m/s | -51.1°C | 0.2% | 27.7hPa | 2.2V | 00:00:00 | 00:00:00 | 00:00:00 | |
| AA1-15 | 2026-09-02 00:31:04 | 54.92099 | 19.90252 | 267° | 15km/h | 1882m | 8.4m/s | -51.1°C | 0.2% | 27.7hPa | 2.2V | 00:00:00 | 00:00:00 | 00:00:00 | |
| AA1-15 | 2026-09-02 00:31:01 | 54.92100 | 19.90266 | 271° | 15km/h | 1863m | 8.1m/s | -51.1°C | 0.2% | 27.8hPa | 2.2V | 00:00:00 | 00:00:00 | 00:00:00 | |
| AA1-15 | 2026-09-02 00:30:58 | 54.92104 | 19.90289 | 270° | 13km/h | 1831m | 8m/s | -51.2°C | 0.1% | 27.8hPa | 2.2V | 00:00:00 | 00:00:00 | 00:00:00 | |
| AA1-15 | 2026-09-02 00:30:57 | 54.92105 | 19.90294 | 270° | 13km/h | 1819m | 8.7m/s | -51.2°C | 0.2% | 27.9hPa | 2.2V | 00:00:00 | 00:00:00 | 00:00:00 | |
| AA1-15 | 2026-09-02 00:30:55 | 54.92108 | 19.90305 | 268° | 13km/h | 1793m | 8.1m/s | -51.2°C | 0.1% | 27.9hPa | 2.2V | 00:00:00 | 00:00:00 | 00:00:00 | |
| AA1-15 | 2026-09-02 00:30:51 | 54.92102 | 19.90323 | 269° | 13km/h | 1758m | 8.1m/s | -51.3°C | 0.2% | 28hPa | 2.2V | 00:00:00 | 00:00:00 | 00:00:00 | |
| AA1-15 | 2026-09-02 00:30:49 | 54.92105 | 19.90336 | 271° | 13km/h | 1733m | 8.3m/s | -51.3°C | 0.1% | 28.1hPa | 2.2V | 00:00:00 | 00:00:00 | 00:00:00 | |
| AA1-15 | 2026-09-02 00:30:47 | 54.92110 | 19.90354 | 269° | 13km/h | 1706m | 8.5m/s | -51.3°C | 0.2% | 28.1hPa | 2.2V | 00:00:00 | 00:00:00 | 00:00:00 | |
| AA1-15 | 2026-09-02 00:30:46 | 54.92112 | 19.90366 | 260° | 22km/h | 1693m | 9.4m/s | -51.3°C | 0.1% | 28.1hPa | 2.2V | 00:00:00 | 00:00:00 | 00:00:00 | |
| AA1-15 | 2026-09-02 00:30:45 | 54.92114 | 19.90395 | 270° | 95km/h | 1684m | 8.6m/s | -51.3°C | 0.2% | 28.2hPa | 2.2V | 00:00:00 | 00:00:00 | 00:00:00 | |
| AA1-15 | 2026-09-02 00:30:42 | 54.92134 | 19.90523 | 248° | 95km/h | 1655m | 8.2m/s | -51.3°C | 0.2% | 28.2hPa | 2.2V | 00:00:00 | 00:00:00 | 00:00:00 | |
| AA1-15 | 2026-09-02 00:30:38 | 54.92214 | 19.90694 | 225° | 102km/h | 1611m | 9.3m/s | -51.3°C | 0.1% | 28.3hPa | 2.2V | 00:00:00 | 00:00:00 | 00:00:00 | |
| AA1-15 | 2026-09-02 00:30:36 | 54.92249 | 19.90740 | 211° | 99km/h | 1598m | 8.9m/s | -51.3°C | 0.2% | 28.4hPa | 2.2V | 00:00:00 | 00:00:00 | 00:00:00 | |
| AA1-15 | 2026-09-02 00:30:27 | 54.92442 | 19.90770 | 159° | 99km/h | 1554m | 8.4m/s | -51.1°C | 0.1% | 28.6hPa | 2.2V | 00:00:00 | 00:00:00 | 00:00:00 | |
| AA1-15 | 2026-09-02 00:30:25 | 54.92478 | 19.90726 | 145° | 95km/h | 1536m | 8.7m/s | -51.1°C | 0.1% | 28.7hPa | 2.2V | 00:00:00 | 00:00:00 | 00:00:00 | |
| AA1-15 | 2026-09-02 00:30:21 | 54.92544 | 19.90600 | 119° | 97km/h | 1528m | 7.6m/s | -51.2°C | 0.2% | 28.8hPa | 2.2V | 00:00:00 | 00:00:00 | 00:00:00 | |
| AA1-15 | 2026-09-02 00:30:17 | 54.92565 | 19.90432 | 95° | 100km/h | 1497m | 9.8m/s | -51.3°C | 0.1% | 28.9hPa | 2.2V | 00:00:00 | 00:00:00 | 00:00:00 | |
| AA1-15 | 2026-09-02 00:30:17 | 54.92559 | 19.90381 | 91° | 100km/h | 1478m | 9.7m/s | -51.3°C | 0.1% | 28.9hPa | 2.2V | 00:00:00 | 00:00:00 | 00:00:00 | |
| AA1-15 | 2026-09-02 00:30:14 | 54.92560 | 19.90298 | 78° | 99km/h | 1453m | 9.8m/s | -51.3°C | 0.1% | 29hPa | 2.2V | 00:00:00 | 00:00:00 | 00:00:00 | |
| AA1-15 | 2026-09-02 00:30:13 | 54.92559 | 19.90262 | 74° | 95km/h | 1440m | 9.8m/s | -51.3°C | 0.1% | 29hPa | 2.2V | 00:00:00 | 00:00:00 | 00:00:00 | |
| AA1-15 | 2026-09-02 00:30:11 | 54.92531 | 19.90143 | 55° | 95km/h | 1400m | 7.9m/s | -51.3°C | 0.1% | 29.1hPa | 2.2V | 00:00:00 | 00:00:00 | 00:00:00 | |
| AA1-15 | 2026-09-02 00:30:09 | 54.92518 | 19.90105 | 48° | 95km/h | 1383m | 8.5m/s | -51.4°C | 0.1% | 29.1hPa | 2.2V | 00:00:00 | 00:00:00 | 00:00:00 | |
| AA1-15 | 2026-09-02 00:30:07 | 54.92486 | 19.90049 | 38° | 89km/h | 1357m | 9.8m/s | -51.4°C | 0.1% | 29.1hPa | 2.2V | 00:00:00 | 00:00:00 | 00:00:00 | |
| AA1-15 | 2026-09-02 00:30:04 | 54.92426 | 19.89997 | 19° | 95km/h | 1327m | 8.2m/s | -51.5°C | 0.1% | 29.2hPa | 2.2V | 00:00:00 | 00:00:00 | 00:00:00 | |
| AA1-15 | 2026-09-02 00:30:01 | 54.92355 | 19.89980 | 0° | 93km/h | 1293m | 8.2m/s | -51.5°C | 0.1% | 29.3hPa | 2.2V | 00:00:00 | 00:00:00 | 00:00:00 | |
| AA1-15 | 2026-09-02 00:29:57 | 54.92253 | 19.89974 | 0° | 100km/h | 1252m | 8.1m/s | -51.6°C | 0.1% | 29.4hPa | 2.2V | 00:00:00 | 00:00:00 | 00:00:00 | |
| AA1-15 | 2026-09-02 00:29:56 | 54.92229 | 19.89974 | 0° | 93km/h | 1242m | 8.3m/s | -51.7°C | 0.1% | 29.4hPa | 2.2V | 00:00:00 | 00:00:00 | 00:00:00 | |
| AA1-15 | 2026-09-02 00:29:55 | 54.92204 | 19.89974 | 0° | 100km/h | 1231m | 8.2m/s | -51.7°C | 0.1% | 29.4hPa | 2.2V | 00:00:00 | 00:00:00 | 00:00:00 | |
| AA1-15 | 2026-09-02 00:29:53 | 54.92156 | 19.89975 | 360° | 95km/h | 1209m | 8m/s | -51.7°C | 0.1% | 29.5hPa | 2.2V | 00:00:00 | 00:00:00 | 00:00:00 | |
| AA1-15 | 2026-09-02 00:29:50 | 54.92083 | 19.89979 | 0° | 97km/h | 1179m | 8.6m/s | -51.6°C | 0.1% | 29.6hPa | 2.2V | 00:00:00 | 00:00:00 | 00:00:00 | |
| AA1-15 | 2026-09-02 00:29:47 | 54.92012 | 19.89982 | 360° | 95km/h | 1149m | 8.2m/s | -51.6°C | 0.1% | 29.7hPa | 2.2V | 00:00:00 | 00:00:00 | 00:00:00 | |
| AA1-15 | 2026-09-02 00:29:46 | 54.91988 | 19.89983 | 360° | 100km/h | 1140m | 8m/s | -51.6°C | 0.1% | 29.7hPa | 2.2V | 00:00:00 | 00:00:00 | 00:00:00 | |
| AA1-15 | 2026-09-02 00:29:45 | 54.91964 | 19.89984 | 360° | 93km/h | 1131m | 8m/s | -51.6°C | 0.1% | 29.8hPa | 2.2V | 00:00:00 | 00:00:00 | 00:00:00 | |
| AA1-15 | 2026-09-02 00:29:43 | 54.91913 | 19.89985 | 0° | 95km/h | 1113m | 8.7m/s | -51.5°C | 0.1% | 29.8hPa | 2.2V | 00:00:00 | 00:00:00 | 00:00:00 | |
| AA1-15 | 2026-09-02 00:29:35 | 54.91841 | 19.89755 | 134° | 95km/h | 1054m | 8.1m/s | -51.4°C | 0.1% | 30hPa | 2.2V | 00:00:00 | 00:00:00 | 00:00:00 | |
| AA1-15 | 2026-09-02 00:29:31 | 54.91930 | 19.89732 | 207° | 99km/h | 1026m | 7.9m/s | -51.6°C | 0.1% | 30.1hPa | 2.2V | 00:00:00 | 00:00:00 | 00:00:00 | |
| AA1-15 | 2026-09-02 00:29:29 | 54.91960 | 19.89784 | 243° | 95km/h | 1014m | 7.9m/s | -51.6°C | 0.1% | 30.1hPa | 2.2V | 00:00:00 | 00:00:00 | 00:00:00 | |
| AA1-15 | 2026-09-02 00:29:27 | 54.91966 | 19.89858 | 272° | 102km/h | 1002m | 6m/s | -51.6°C | 0.1% | 30.2hPa | 2.2V | 00:00:00 | 00:00:00 | 00:00:00 | |
| AA1-15 | 2026-09-02 00:29:25 | 54.91959 | 19.89933 | 270° | 95km/h | 972m | 7.8m/s | -51.6°C | 0.1% | 30.2hPa | 2.2V | 00:00:00 | 00:00:00 | 00:00:00 | |
| AA1-15 | 2026-09-02 00:29:20 | 54.88389 | 20.04015 | 0° | 0km/h | 159087m | 0m/s | -51.8°C | 0.1% | 30.4hPa | 2.2V | 00:00:00 | 00:00:00 | 00:00:00 | |
| AA1-15 | 2026-09-02 00:29:09 | 54.88389 | 20.04015 | 0° | 0km/h | 159087m | 0m/s | -52.2°C | 0% | 30.7hPa | 2.2V | 00:00:00 | 00:00:00 | 00:00:00 | |
| AA1-15 | 2026-09-02 00:28:59 | 54.88373 | 20.04020 | 348° | 11km/h | 159087m | 9.8m/s | -52.7°C | 0.1% | 31hPa | 2.2V | 00:00:00 | 00:00:00 | 00:00:00 | |
| AA1-15 | 2026-09-02 00:28:47 | 54.88322 | 20.04043 | 0° | 11km/h | 2973m | 8.3m/s | -52.7°C | 0.1% | 31.2hPa | 2.2V | 00:00:00 | 00:00:00 | 00:00:00 | |
| AA1-15 | 2026-09-02 00:28:35 | 54.88275 | 20.04033 | 1° | 16km/h | 2867m | 8.1m/s | -52.8°C | 0.1% | 31.6hPa | 2.2V | 00:00:00 | 00:00:00 | 00:00:00 | |
| AA1-15 | 2026-09-02 00:28:23 | 54.88282 | 20.04085 | 349° | 11km/h | 2754m | 8.9m/s | -52.7°C | 0.2% | 31.9hPa | 2.2V | 00:00:00 | 00:00:00 | 00:00:00 | |
| AA1-15 | 2026-09-02 00:27:50 | 54.88139 | 20.04065 | 0° | 16km/h | 2442m | 8.2m/s | -51.9°C | 0.2% | 32.9hPa | 2.2V | 00:00:00 | 00:00:00 | 00:00:00 | |
| AA1-15 | 2026-09-02 00:27:33 | 54.88078 | 20.04040 | 17° | 15km/h | 2343m | 10.2m/s | -51.9°C | 0.2% | 33.4hPa | 2.2V | 00:00:00 | 00:00:00 | 00:00:00 | |
| AA1-15 | 2026-09-02 00:27:21 | 54.88022 | 20.04022 | 4° | 15km/h | 2236m | 8.1m/s | -51.8°C | 0.2% | 33.8hPa | 2.2V | 00:00:00 | 00:00:00 | 00:00:00 | |
| AA1-15 | 2026-09-02 00:26:58 | 54.87942 | 20.04025 | 357° | 13km/h | 2036m | 7.8m/s | -51.7°C | 0.2% | 34.5hPa | 2.2V | 00:00:00 | 00:00:00 | 00:00:00 | |
| AA1-15 | 2026-09-02 00:26:38 | 54.87696 | 20.04066 | 348° | 93km/h | 1950m | 9.2m/s | -52.3°C | 0.3% | 35.1hPa | 2.2V | 00:00:00 | 00:00:00 | 00:00:00 | |
| AA1-15 | 2026-09-02 00:26:33 | 54.87596 | 20.04172 | 339° | 99km/h | 1881m | 8.6m/s | -52.3°C | 0.3% | 35.3hPa | 2.2V | 00:00:00 | 00:00:00 | 00:00:00 | |
| AA1-15 | 2026-09-02 00:26:29 | 54.87539 | 20.04232 | 336° | 97km/h | 1849m | 7.9m/s | -52.2°C | 0.3% | 35.4hPa | 2.2V | 00:00:00 | 00:00:00 | 00:00:00 | |
| AA1-15 | 2026-09-02 00:26:26 | 54.87462 | 20.04277 | 331° | 97km/h | 1820m | 8.8m/s | -52.2°C | 0.3% | 35.5hPa | 2.2V | 00:00:00 | 00:00:00 | 00:00:00 | |
| AA1-15 | 2026-09-02 00:26:23 | 54.87398 | 20.04327 | 327° | 97km/h | 1777m | 8.8m/s | -52.1°C | 0.3% | 35.6hPa | 2.2V | 00:00:00 | 00:00:00 | 00:00:00 | |
| AA1-15 | 2026-09-02 00:26:01 | 54.87059 | 20.05050 | 289° | 93km/h | 1610m | 9.9m/s | -51.5°C | 0.3% | 36.3hPa | 2.2V | 00:00:00 | 00:00:00 | 00:00:00 | |
| AA1-15 | 2026-09-02 00:25:57 | 54.87034 | 20.05212 | 284° | 97km/h | 1570m | 8m/s | -51.5°C | 0.3% | 36.4hPa | 2.2V | 00:00:00 | 00:00:00 | 00:00:00 | |
| AA1-15 | 2026-09-02 00:25:55 | 54.87026 | 20.05295 | 281° | 95km/h | 1546m | 8.3m/s | -51.4°C | 0.3% | 36.5hPa | 2.2V | 00:00:00 | 00:00:00 | 00:00:00 | |
| AA1-15 | 2026-09-02 00:25:46 | 54.87019 | 20.05716 | 265° | 97km/h | 1442m | 8.4m/s | -51.6°C | 0.3% | 36.7hPa | 2.2V | 00:00:00 | 00:00:00 | 00:00:00 | |
| AA1-15 | 2026-09-02 00:25:44 | 54.87027 | 20.05792 | 263° | 97km/h | 1420m | 8.2m/s | -51.6°C | 0.3% | 36.8hPa | 2.2V | 00:00:00 | 00:00:00 | 00:00:00 | |
| AA1-15 | 2026-09-02 00:25:38 | 54.87049 | 20.06013 | 253° | 95km/h | 1399m | 8.3m/s | -51.7°C | 0.3% | 37hPa | 2.2V | 00:00:00 | 00:00:00 | 00:00:00 | |
| AA1-15 | 2026-09-02 00:25:31 | 54.87111 | 20.06288 | 243° | 97km/h | 1356m | 8.3m/s | -51.7°C | 0.3% | 37.2hPa | 2.2V | 00:00:00 | 00:00:00 | 00:00:00 | |
| AA1-15 | 2026-09-02 00:25:28 | 54.87138 | 20.06397 | 237° | 95km/h | 1339m | 9.2m/s | -51.8°C | 0.3% | 37.3hPa | 2.2V | 00:00:00 | 00:00:00 | 00:00:00 | |
| AA1-15 | 2026-09-02 00:25:27 | 54.87153 | 20.06434 | 237° | 95km/h | 1334m | 8.3m/s | -51.8°C | 0.3% | 37.3hPa | 2.2V | 00:00:00 | 00:00:00 | 00:00:00 | |
| AA1-15 | 2026-09-02 00:25:25 | 54.87185 | 20.06507 | 232° | 99km/h | 1322m | 8.1m/s | -51.9°C | 0.3% | 37.4hPa | 2.2V | 00:00:00 | 00:00:00 | 00:00:00 | |
| AA1-15 | 2026-09-02 00:25:24 | 54.87200 | 20.06540 | 234° | 91km/h | 1318m | 8.2m/s | -51.9°C | 0.3% | 37.4hPa | 2.2V | 00:00:00 | 00:00:00 | 00:00:00 | |
| AA1-15 | 2026-09-02 00:25:21 | 54.87255 | 20.06636 | 230° | 84km/h | 1304m | 6m/s | -51.9°C | 0.3% | 37.5hPa | 2.2V | 00:00:00 | 00:00:00 | 00:00:00 | |
| AA1-15 | 2026-09-02 00:25:15 | 54.87351 | 20.06792 | 220° | 91km/h | 1259m | 8.3m/s | -52.1°C | 0.3% | 37.7hPa | 2.2V | 00:00:00 | 00:00:00 | 00:00:00 | |
| AA1-15 | 2026-09-02 00:25:14 | 54.87373 | 20.06819 | 219° | 93km/h | 1248m | 7.8m/s | -52.1°C | 0.3% | 37.7hPa | 2.2V | 00:00:00 | 00:00:00 | 00:00:00 | |
| AA1-15 | 2026-09-02 00:25:08 | 54.87548 | 20.07042 | 206° | 97km/h | 1184m | 9.2m/s | -52.2°C | 0.3% | 37.9hPa | 2.2V | 00:00:00 | 00:00:00 | 00:00:00 | |
| AA1-15 | 2026-09-02 00:25:03 | 54.87634 | 20.07103 | 200° | 99km/h | 1131m | 8.6m/s | -52.1°C | 0.3% | 38.1hPa | 2.2V | 00:00:00 | 00:00:00 | 00:00:00 | |
| AA1-15 | 2026-09-02 00:25:02 | 54.87651 | 20.07115 | 199° | 97km/h | 1114m | 9m/s | -52.1°C | 0.3% | 38.1hPa | 2.2V | 00:00:00 | 00:00:00 | 00:00:00 | |
| AA1-15 | 2026-09-02 00:24:59 | 54.87717 | 20.07146 | 193° | 97km/h | 1084m | 8.6m/s | -52°C | 0.3% | 38.2hPa | 2.2V | 00:00:00 | 00:00:00 | 00:00:00 | |
| AA1-15 | 2026-09-02 00:24:58 | 54.87760 | 20.07156 | 189° | 95km/h | 1074m | 8.3m/s | -52°C | 0.3% | 38.3hPa | 2.2V | 00:00:00 | 00:00:00 | 00:00:00 | |
| AA1-15 | 2026-09-02 00:24:51 | 54.87894 | 20.07177 | 179° | 93km/h | 1056m | 8.5m/s | -52°C | 0.4% | 38.5hPa | 2.2V | 00:00:00 | 00:00:00 | 00:00:00 | |
| AA1-15 | 2026-09-02 00:24:46 | 54.88023 | 20.07122 | 171° | 99km/h | 1074m | 10.8m/s | -52.1°C | 0.4% | 38.7hPa | 2.2V | 00:00:00 | 00:00:00 | 00:00:00 | |
| AA1-15 | 2026-09-02 00:24:41 | 54.88120 | 20.07083 | 165° | 93km/h | 1015m | 7.7m/s | -52°C | 0.4% | 38.8hPa | 2.2V | 00:00:00 | 00:00:00 | 00:00:00 | |
| AA1-15 | 2026-09-02 00:24:39 | 54.88161 | 20.07061 | 162° | 93km/h | 992m | 8.6m/s | -52°C | 0.4% | 38.9hPa | 2.2V | 00:00:00 | 00:00:00 | 00:00:00 | |
| AA1-15 | 2026-09-02 00:24:33 | 54.88305 | 20.06980 | 152° | 97km/h | 930m | 9.1m/s | -51.9°C | 0.4% | 39hPa | 2.2V | 00:00:00 | 00:00:00 | 00:00:00 | |
| AA1-15 | 2026-09-02 00:24:30 | 54.88368 | 20.06918 | 148° | 95km/h | 895m | 8.8m/s | -51.9°C | 0.4% | 39.1hPa | 2.2V | 00:00:00 | 00:00:00 | 00:00:00 | |
| AA1-15 | 2026-09-02 00:24:29 | 54.88387 | 20.06894 | 145° | 97km/h | 883m | 7.7m/s | -51.9°C | 0.4% | 39.2hPa | 2.2V | 00:00:00 | 00:00:00 | 00:00:00 | |
| AA1-15 | 2026-09-02 00:24:26 | 54.88445 | 20.06805 | 139° | 97km/h | 841m | 8.4m/s | -51.9°C | 0.5% | 39.3hPa | 2.2V | 00:00:00 | 00:00:00 | 00:00:00 | |
| AA1-15 | 2026-09-02 00:24:18 | 54.88593 | 20.06555 | 129° | 97km/h | 771m | 8.4m/s | -52°C | 0.4% | 39.5hPa | 2.2V | 00:00:00 | 00:00:00 | 00:00:00 | |
| AA1-15 | 2026-09-02 00:24:15 | 54.88650 | 20.06413 | 121° | 97km/h | 731m | 8.2m/s | -51.9°C | 0.4% | 39.6hPa | 2.2V | 00:00:00 | 00:00:00 | 00:00:00 | |
| AA1-15 | 2026-09-02 00:24:14 | 54.88661 | 20.06374 | 120° | 93km/h | 720m | 8.3m/s | -51.9°C | 0.4% | 39.7hPa | 2.2V | 00:00:00 | 00:00:00 | 00:00:00 | |
| AA1-15 | 2026-09-02 00:24:10 | 54.88697 | 20.06269 | 114° | 91km/h | 685m | 8.3m/s | -51.8°C | 0.4% | 39.8hPa | 2.2V | 00:00:00 | 00:00:00 | 00:00:00 | |
| AA1-15 | 2026-09-02 00:24:09 | 54.88708 | 20.06235 | 118° | 97km/h | 672m | 8m/s | -51.8°C | 0.5% | 39.8hPa | 2.2V | 00:00:00 | 00:00:00 | 00:00:00 | |
| AA1-15 | 2026-09-02 00:24:08 | 54.88715 | 20.06196 | 115° | 95km/h | 657m | 8.2m/s | -51.7°C | 0.5% | 39.9hPa | 2.2V | 00:00:00 | 00:00:00 | 00:00:00 | |
| AA1-15 | 2026-09-02 00:24:06 | 54.88724 | 20.06121 | 108° | 97km/h | 625m | 9m/s | -51.7°C | 0.5% | 39.9hPa | 2.2V | 00:00:00 | 00:00:00 | 00:00:00 | |
| AA1-15 | 2026-09-02 00:24:05 | 54.88734 | 20.06085 | 109° | 97km/h | 616m | 8.6m/s | -51.6°C | 0.5% | 39.9hPa | 2.2V | 00:00:00 | 00:00:00 | 00:00:00 | |
| AA1-15 | 2026-09-02 00:24:03 | 54.88753 | 20.05962 | 104° | 97km/h | 592m | 8m/s | -51.6°C | 0.5% | 40hPa | 2.2V | 00:00:00 | 00:00:00 | 00:00:00 | |
| AA1-15 | 2026-09-02 00:24:01 | 54.88759 | 20.05920 | 101° | 99km/h | 584m | 8m/s | -51.5°C | 0.5% | 40.1hPa | 2.2V | 00:00:00 | 00:00:00 | 00:00:00 | |
| AA1-15 | 2026-09-02 00:23:59 | 54.88770 | 20.05842 | 100° | 93km/h | 568m | 8.2m/s | -51.5°C | 0.4% | 40.1hPa | 2.2V | 00:00:00 | 00:00:00 | 00:00:00 | |
| AA1-15 | 2026-09-02 00:23:58 | 54.88775 | 20.05803 | 97° | 97km/h | 561m | 8.3m/s | -51.5°C | 0.5% | 40.1hPa | 2.2V | 00:00:00 | 00:00:00 | 00:00:00 | |
| AA1-15 | 2026-09-02 00:23:55 | 54.88783 | 20.05679 | 92° | 95km/h | 534m | 8.2m/s | -51.5°C | 0.5% | 40.2hPa | 2.2V | 00:00:00 | 00:00:00 | 00:00:00 | |
| AA1-15 | 2026-09-02 00:23:54 | 54.88785 | 20.05595 | 90° | 95km/h | 516m | 8.2m/s | -51.5°C | 0.5% | 40.3hPa | 2.2V | 00:00:00 | 00:00:00 | 00:00:00 | |
| AA1-15 | 2026-09-02 00:23:53 | 54.88787 | 20.05554 | 88° | 95km/h | 503m | 8.1m/s | -51.4°C | 0.5% | 40.4hPa | 2.2V | 00:00:00 | 00:00:00 | 00:00:00 | |
| AA1-15 | 2026-09-02 00:23:49 | 54.88787 | 20.05426 | 83° | 97km/h | 464m | 8.2m/s | -51.5°C | 0.5% | 40.5hPa | 2.2V | 00:00:00 | 00:00:00 | 00:00:00 | |
| AA1-15 | 2026-09-02 00:23:48 | 54.88782 | 20.05384 | 84° | 93km/h | 459m | 8.2m/s | -51.5°C | 0.5% | 40.5hPa | 2.2V | 00:00:00 | 00:00:00 | 00:00:00 | |
| AA1-15 | 2026-09-02 00:23:47 | 54.88779 | 20.05345 | 81° | 97km/h | 451m | 8.3m/s | -51.5°C | 0.5% | 40.5hPa | 2.2V | 00:00:00 | 00:00:00 | 00:00:00 | |
| AA1-15 | 2026-09-02 00:23:45 | 54.88766 | 20.05263 | 78° | 97km/h | 437m | 7.5m/s | -51.5°C | 0.5% | 40.6hPa | 2.2V | 00:00:00 | 00:00:00 | 00:00:00 | |
| AA1-15 | 2026-09-02 00:23:44 | 54.88761 | 20.05222 | 76° | 95km/h | 430m | 8.1m/s | -51.5°C | 0.5% | 40.6hPa | 2.2V | 00:00:00 | 00:00:00 | 00:00:00 | |
| AA1-15 | 2026-09-02 00:23:43 | 54.88751 | 20.05142 | 73° | 97km/h | 413m | 6.1m/s | -51.5°C | 0.5% | 40.7hPa | 2.2V | 00:00:00 | 00:00:00 | 00:00:00 | |
| AA1-15 | 2026-09-02 00:23:42 | 54.88743 | 20.05100 | 71° | 97km/h | 405m | 7.8m/s | -51.5°C | 0.5% | 40.7hPa | 2.2V | 00:00:00 | 00:00:00 | 00:00:00 | |
| AA1-15 | 2026-09-02 00:23:40 | 54.88734 | 20.05058 | 71° | 97km/h | 397m | 8.3m/s | -51.5°C | 0.5% | 40.8hPa | 2.2V | 00:00:00 | 00:00:00 | 00:00:00 | |
| AA1-15 | 2026-09-02 00:23:36 | 54.88692 | 20.04899 | 63° | 95km/h | 373m | 7.1m/s | -51.6°C | 0.5% | 40.9hPa | 2.2V | 00:00:00 | 00:00:00 | 00:00:00 | |
| AA1-15 | 2026-09-02 00:23:35 | 54.88679 | 20.04861 | 61° | 97km/h | 372m | 8.1m/s | -51.5°C | 0.5% | 40.9hPa | 2.2V | 00:00:00 | 00:00:00 | 00:00:00 | |
| AA1-15 | 2026-09-02 00:23:33 | 54.88644 | 20.04751 | 55° | 99km/h | 352m | 6.5m/s | -51.5°C | 0.5% | 41hPa | 2.2V | 00:00:00 | 00:00:00 | 00:00:00 | |
| AA1-15 | 2026-09-02 00:23:31 | 54.88616 | 20.04683 | 53° | 97km/h | 349m | 8m/s | -51.5°C | 0.5% | 41hPa | 2.2V | 00:00:00 | 00:00:00 | 00:00:00 | |
| AA1-15 | 2026-09-02 00:23:27 | 53.91190 | 22.16035 | 0° | 0km/h | 159087m | 0m/s | -51.5°C | 0.6% | 41.1hPa | 2.2V | 00:00:00 | 00:00:00 | 00:00:00 | |
| AA1-15 | 2026-09-02 00:23:17 | 54.95848 | 19.25864 | 342° | 330km/h | 159087m | -104.7m/s | -51.5°C | 0.5% | 41.5hPa | 2.2V | 00:00:00 | 00:00:00 | 00:00:00 | |
| AA1-15 | 2026-09-02 00:23:04 | 54.95587 | 19.26135 | 352° | 159km/h | 159087m | 19.3m/s | -51.4°C | 0.6% | 41.9hPa | 2.2V | 00:00:00 | 00:00:00 | 00:00:00 | |
| AA1-15 | 2026-09-02 00:22:53 | 54.95101 | 19.26088 | 279° | 26km/h | 159087m | 13.8m/s | -51.3°C | 0.6% | 42.3hPa | 2.2V | 00:00:00 | 00:00:00 | 00:00:00 | |
| AA1-15 | 2026-09-02 00:22:42 | 54.95066 | 19.26188 | 273° | 13km/h | 2494m | 8.2m/s | -51.4°C | 0.6% | 42.7hPa | 2.2V | 00:00:00 | 00:00:00 | 00:00:00 | |
| AA1-15 | 2026-09-02 00:22:32 | 54.95080 | 19.26285 | 253° | 9km/h | 2388m | 10m/s | -51.3°C | 0.6% | 43.1hPa | 2.2V | 00:00:00 | 00:00:00 | 00:00:00 | |
| AA1-15 | 2026-09-02 00:22:18 | 54.95092 | 19.26339 | 269° | 13km/h | 2242m | 8.3m/s | -51.1°C | 0.6% | 43.5hPa | 2.2V | 00:00:00 | 00:00:00 | 00:00:00 | |
| AA1-15 | 2026-09-02 00:22:07 | 54.95111 | 19.26423 | 266° | 13km/h | 2121m | 8.7m/s | -51.1°C | 0.6% | 43.9hPa | 2.2V | 00:00:00 | 00:00:00 | 00:00:00 | |
| AA1-15 | 2026-09-02 00:21:56 | 54.95118 | 19.26512 | 263° | 15km/h | 1997m | 9.2m/s | -50.9°C | 0.6% | 44.3hPa | 2.2V | 00:00:00 | 00:00:00 | 00:00:00 | |
| AA1-15 | 2026-09-02 00:21:53 | 54.95114 | 19.26532 | 272° | 13km/h | 1965m | 9m/s | -51°C | 0.6% | 44.5hPa | 2.2V | 00:00:00 | 00:00:00 | 00:00:00 | |
| AA1-15 | 2026-09-02 00:21:49 | 54.95119 | 19.26551 | 263° | 11km/h | 1928m | 8.8m/s | -51°C | 0.6% | 44.6hPa | 2.2V | 00:00:00 | 00:00:00 | 00:00:00 | |
| AA1-15 | 2026-09-02 00:21:46 | 54.95131 | 19.26580 | 272° | 13km/h | 1882m | 8.2m/s | -51°C | 0.6% | 44.7hPa | 2.2V | 00:00:00 | 00:00:00 | 00:00:00 | |
| AA1-15 | 2026-09-02 00:21:43 | 54.95132 | 19.26596 | 255° | 15km/h | 1856m | 12.4m/s | -51.1°C | 0.6% | 44.8hPa | 2.2V | 00:00:00 | 00:00:00 | 00:00:00 | |
| AA1-15 | 2026-09-02 00:21:39 | 54.95131 | 19.26613 | 270° | 13km/h | 1843m | 8.2m/s | -51.1°C | 0.6% | 44.9hPa | 2.2V | 00:00:00 | 00:00:00 | 00:00:00 | |
| AA1-15 | 2026-09-02 00:21:36 | 54.95129 | 19.26630 | 266° | 16km/h | 1839m | 8.3m/s | -51.2°C | 0.6% | 45hPa | 2.2V | 00:00:00 | 00:00:00 | 00:00:00 | |
| AA1-15 | 2026-09-02 00:21:34 | 54.95105 | 19.26649 | 269° | 13km/h | 1886m | 8.3m/s | -51.1°C | 0.5% | 45.2hPa | 2.2V | 00:00:00 | 00:00:00 | 00:00:00 | |
| AA1-15 | 2026-09-02 00:21:22 | 54.95103 | 19.26691 | 276° | 11km/h | 1789m | 9.6m/s | -51.2°C | 0.5% | 45.6hPa | 2.2V | 00:00:00 | 00:00:00 | 00:00:00 | |
| AA1-15 | 2026-09-02 00:21:18 | 54.95106 | 19.26710 | 260° | 15km/h | 1762m | 9.1m/s | -51.2°C | 0.5% | 45.7hPa | 2.2V | 00:00:00 | 00:00:00 | 00:00:00 | |
| AA1-15 | 2026-09-02 00:21:03 | 54.95132 | 19.26805 | 267° | 15km/h | 1586m | 8.4m/s | -51.4°C | 0.5% | 46.3hPa | 2.2V | 00:00:00 | 00:00:00 | 00:00:00 | |
| AA1-15 | 2026-09-02 00:20:46 | 54.95143 | 19.26940 | 271° | 13km/h | 1397m | 8.8m/s | -51.8°C | 0.5% | 46.9hPa | 2.2V | 00:00:00 | 00:00:00 | 00:00:00 | |
| AA1-15 | 2026-09-02 00:20:41 | 54.95148 | 19.27060 | 252° | 95km/h | 1362m | 7.6m/s | -51.8°C | 0.5% | 47.1hPa | 2.2V | 00:00:00 | 00:00:00 | 00:00:00 | |
| AA1-15 | 2026-09-02 00:20:38 | 54.95179 | 19.27183 | 240° | 93km/h | 1344m | 9.9m/s | -51.8°C | 0.5% | 47.2hPa | 2.2V | 00:00:00 | 00:00:00 | 00:00:00 | |
| AA1-15 | 2026-09-02 00:20:34 | 54.95265 | 19.27324 | 208° | 93km/h | 1319m | 7.7m/s | -51.7°C | 0.5% | 47.4hPa | 2.2V | 00:00:00 | 00:00:00 | 00:00:00 | |
| AA1-15 | 2026-09-02 00:20:31 | 54.95313 | 19.27358 | 195° | 95km/h | 1318m | 7m/s | -51.6°C | 0.5% | 47.5hPa | 2.2V | 00:00:00 | 00:00:00 | 00:00:00 | |
| AA1-15 | 2026-09-02 00:20:22 | 54.95584 | 19.27295 | 134° | 93km/h | 1395m | 14m/s | -51.7°C | 0.5% | 47.8hPa | 2.2V | 00:00:00 | 00:00:00 | 00:00:00 | |
| AA1-15 | 2026-09-02 00:20:21 | 54.95613 | 19.27225 | 121° | 99km/h | 1337m | 17.5m/s | -51.7°C | 0.5% | 48hPa | 2.2V | 00:00:00 | 00:00:00 | 00:00:00 | |
| AA1-15 | 2026-09-02 00:20:17 | 54.04686 | 19.84389 | 0° | 0km/h | 159087m | 0m/s | -51.8°C | 0.5% | 48hPa | 2.2V | 00:00:00 | 00:00:00 | 00:00:00 | |
| AA1-15 | 2026-09-02 00:20:02 | 54.04407 | 19.84223 | 19° | 168km/h | 159087m | 3.6m/s | -52.2°C | 0.5% | 48.7hPa | 2.2V | 00:00:00 | 00:00:00 | 00:00:00 | |
| AA1-15 | 2026-09-02 00:19:50 | 54.03958 | 19.83766 | 27° | 175km/h | 45215m | 21.1m/s | -52.1°C | 0.6% | 49.2hPa | 2.2V | 00:00:00 | 00:00:00 | 00:00:00 | |
| AA1-15 | 2026-09-02 00:19:39 | 54.03432 | 19.83061 | 117° | 75km/h | 159087m | 24.1m/s | -51.9°C | 0.6% | 49.6hPa | 2.2V | 00:00:00 | 00:00:00 | 00:00:00 | |
| AA1-15 | 2026-09-02 00:19:27 | 54.95768 | 19.24990 | 0° | 0km/h | 159087m | 0m/s | -51.8°C | 0.6% | 50.1hPa | 2.2V | 00:00:00 | 00:00:00 | 00:00:00 | |
| AA1-15 | 2026-09-02 00:19:18 | 54.95969 | 19.25650 | 242° | 339km/h | 159087m | -27.8m/s | -51.6°C | 0.7% | 50.6hPa | 2.2V | 00:00:00 | 00:00:00 | 00:00:00 | |
| AA1-15 | 2026-09-02 00:19:08 | 54.96184 | 19.27033 | 201° | 177km/h | 2309m | -22.5m/s | -51.4°C | 0.7% | 51hPa | 2.2V | 00:00:00 | 00:00:00 | 00:00:00 | |
| AA1-15 | 2026-09-02 00:18:52 | 55.08250 | 19.72886 | 259° | 13km/h | 159087m | 8.6m/s | -51.3°C | 0.6% | 51.6hPa | 2.2V | 00:00:00 | 00:00:00 | 00:00:00 | |
| AA1-15 | 2026-09-02 00:18:38 | 55.08244 | 19.72971 | 265° | 16km/h | 2556m | 8.8m/s | -51.3°C | 0.6% | 52.2hPa | 2.2V | 00:00:00 | 00:00:00 | 00:00:00 | |
| AA1-15 | 2026-09-02 00:18:28 | 55.08247 | 19.73039 | 268° | 18km/h | 2516m | 8.8m/s | -51.5°C | 0.6% | 52.6hPa | 2.2V | 00:00:00 | 00:00:00 | 00:00:00 | |
| AA1-15 | 2026-09-02 00:18:16 | 55.08209 | 19.73080 | 282° | 11km/h | 2525m | 9.3m/s | -51.8°C | 0.6% | 53.1hPa | 2.2V | 00:00:00 | 00:00:00 | 00:00:00 | |
| AA1-15 | 2026-09-02 00:18:06 | 55.08231 | 19.73185 | 279° | 15km/h | 2377m | 9m/s | -51.9°C | 0.6% | 53.6hPa | 2.2V | 00:00:00 | 00:00:00 | 00:00:00 | |
| AA1-15 | 2026-09-02 00:17:55 | 55.08237 | 19.73238 | 270° | 13km/h | 2243m | 8.4m/s | -52.1°C | 0.6% | 54.1hPa | 2.2V | 00:00:00 | 00:00:00 | 00:00:00 | |
| AA1-15 | 2026-09-02 00:17:43 | 55.08240 | 19.73319 | 268° | 13km/h | 2158m | 8.1m/s | -52°C | 0.7% | 54.6hPa | 2.2V | 00:00:00 | 00:00:00 | 00:00:00 | |
| AA1-15 | 2026-09-02 00:17:26 | 55.08254 | 19.73438 | 271° | 16km/h | 1999m | 9m/s | -52.2°C | 0.8% | 55.4hPa | 2.2V | 00:00:00 | 00:00:00 | 00:00:00 | |
| AA1-15 | 2026-09-02 00:17:23 | 55.08258 | 19.73461 | 320° | 16km/h | 1963m | 8.9m/s | -52.1°C | 0.8% | 55.5hPa | 2.2V | 00:00:00 | 00:00:00 | 00:00:00 | |
| AA1-15 | 2026-09-02 00:17:21 | 55.08252 | 19.73464 | 9° | 46km/h | 1949m | 13.2m/s | -52°C | 0.8% | 55.5hPa | 2.2V | 00:00:00 | 00:00:00 | 00:00:00 | |
| AA1-15 | 2026-09-02 00:17:19 | 55.08248 | 19.73463 | 274° | 13km/h | 1918m | 7.4m/s | -52°C | 0.8% | 55.6hPa | 2.2V | 00:00:00 | 00:00:00 | 00:00:00 | |
| AA1-15 | 2026-09-02 00:17:18 | 55.08253 | 19.73464 | 266° | 13km/h | 1909m | 8.8m/s | -51.9°C | 0.8% | 55.6hPa | 2.2V | 00:00:00 | 00:00:00 | 00:00:00 | |
| AA1-15 | 2026-09-02 00:17:16 | 55.08257 | 19.73483 | 247° | 11km/h | 1885m | 10.3m/s | -51.8°C | 0.9% | 55.8hPa | 2.2V | 00:00:00 | 00:00:00 | 00:00:00 | |
| AA1-15 | 2026-09-02 00:17:14 | 55.08254 | 19.73488 | 271° | 13km/h | 1876m | 7.7m/s | -51.8°C | 0.8% | 55.9hPa | 2.2V | 00:00:00 | 00:00:00 | 00:00:00 | |
| AA1-15 | 2026-09-02 00:17:12 | 55.08247 | 19.73498 | 274° | 16km/h | 1855m | 8.4m/s | -51.7°C | 0.8% | 56hPa | 2.2V | 00:00:00 | 00:00:00 | 00:00:00 | |
| AA1-15 | 2026-09-02 00:17:11 | 55.08245 | 19.73503 | 271° | 13km/h | 1851m | 8.6m/s | -51.7°C | 0.9% | 56hPa | 2.2V | 00:00:00 | 00:00:00 | 00:00:00 | |
| AA1-15 | 2026-09-02 00:17:10 | 55.08243 | 19.73506 | 273° | 13km/h | 1851m | 8.4m/s | -51.7°C | 0.9% | 56hPa | 2.2V | 00:00:00 | 00:00:00 | 00:00:00 | |
| AA1-15 | 2026-09-02 00:17:09 | 55.08240 | 19.73507 | 268° | 15km/h | 1853m | 8.4m/s | -51.7°C | 0.9% | 56.1hPa | 2.2V | 00:00:00 | 00:00:00 | 00:00:00 | |
| AA1-15 | 2026-09-02 00:17:08 | 55.08233 | 19.73507 | 271° | 13km/h | 1853m | 8.2m/s | -51.7°C | 0.9% | 56.1hPa | 2.2V | 00:00:00 | 00:00:00 | 00:00:00 | |
| AA1-15 | 2026-09-02 00:17:07 | 55.08232 | 19.73512 | 292° | 16km/h | 1854m | 9.4m/s | -51.7°C | 0.9% | 56.1hPa | 2.2V | 00:00:00 | 00:00:00 | 00:00:00 | |
| AA1-15 | 2026-09-02 00:17:05 | 55.08234 | 19.73532 | 273° | 13km/h | 1826m | 8.5m/s | -51.6°C | 0.9% | 56.3hPa | 2.2V | 00:00:00 | 00:00:00 | 00:00:00 | |
| AA1-15 | 2026-09-02 00:17:04 | 55.08235 | 19.73541 | 256° | 15km/h | 1813m | 9.5m/s | -51.5°C | 0.9% | 56.4hPa | 2.2V | 00:00:00 | 00:00:00 | 00:00:00 | |
| AA1-15 | 2026-09-02 00:17:02 | 55.08237 | 19.73551 | 272° | 13km/h | 1802m | 8.1m/s | -51.5°C | 0.9% | 56.4hPa | 2.2V | 00:00:00 | 00:00:00 | 00:00:00 | |
| AA1-15 | 2026-09-02 00:16:59 | 55.08243 | 19.73581 | 268° | 13km/h | 1774m | 8m/s | -51.4°C | 0.9% | 56.5hPa | 2.2V | 00:00:00 | 00:00:00 | 00:00:00 | |
| AA1-15 | 2026-09-02 00:16:58 | 55.08243 | 19.73583 | 272° | 11km/h | 1764m | 9.9m/s | -51.4°C | 1% | 56.6hPa | 2.2V | 00:00:00 | 00:00:00 | 00:00:00 | |
| AA1-15 | 2026-09-02 00:16:57 | 55.08243 | 19.73589 | 270° | 13km/h | 1750m | 8.5m/s | -51.3°C | 1% | 56.6hPa | 2.2V | 00:00:00 | 00:00:00 | 00:00:00 | |
| AA1-15 | 2026-09-02 00:16:56 | 55.08246 | 19.73602 | 270° | 15km/h | 1730m | 8.6m/s | -51.2°C | 0.9% | 56.7hPa | 2.2V | 00:00:00 | 00:00:00 | 00:00:00 | |
| AA1-15 | 2026-09-02 00:16:54 | 55.08248 | 19.73618 | 267° | 13km/h | 1708m | 8.5m/s | -51.1°C | 1% | 56.8hPa | 2.2V | 00:00:00 | 00:00:00 | 00:00:00 | |
| AA1-15 | 2026-09-02 00:16:51 | 55.08252 | 19.73630 | 273° | 13km/h | 1690m | 8m/s | -51.1°C | 1% | 56.9hPa | 2.2V | 00:00:00 | 00:00:00 | 00:00:00 | |
| AA1-15 | 2026-09-02 00:16:49 | 55.08261 | 19.73648 | 264° | 15km/h | 1676m | 7.6m/s | -51°C | 1% | 57hPa | 2.2V | 00:00:00 | 00:00:00 | 00:00:00 | |
| AA1-15 | 2026-09-02 00:16:48 | 55.08263 | 19.73657 | 268° | 15km/h | 1667m | 8.4m/s | -51°C | 1% | 57hPa | 2.2V | 00:00:00 | 00:00:00 | 00:00:00 | |
| AA1-15 | 2026-09-02 00:16:45 | 55.08262 | 19.73681 | 281° | 46km/h | 1637m | 12m/s | -50.8°C | 1% | 57.2hPa | 2.2V | 00:00:00 | 00:00:00 | 00:00:00 | |
| AA1-15 | 2026-09-02 00:16:43 | 55.08269 | 19.73758 | 261° | 97km/h | 1627m | 8.3m/s | -50.7°C | 1% | 57.3hPa | 2.2V | 00:00:00 | 00:00:00 | 00:00:00 | |
| AA1-15 | 2026-09-02 00:16:41 | 55.08278 | 19.73829 | 247° | 97km/h | 1621m | 8.2m/s | -50.6°C | 1% | 57.4hPa | 2.2V | 00:00:00 | 00:00:00 | 00:00:00 | |
| AA1-15 | 2026-09-02 00:16:38 | 55.08299 | 19.73925 | 232° | 95km/h | 1599m | 8m/s | -50.5°C | 1% | 57.5hPa | 2.2V | 00:00:00 | 00:00:00 | 00:00:00 | |
| AA1-15 | 2026-09-02 00:16:37 | 55.08311 | 19.73953 | 225° | 93km/h | 1595m | 8m/s | -50.5°C | 1% | 57.6hPa | 2.2V | 00:00:00 | 00:00:00 | 00:00:00 | |
| AA1-15 | 2026-09-02 00:16:36 | 55.08339 | 19.74016 | 223° | 78km/h | 1606m | 12.7m/s | -50.5°C | 1% | 57.6hPa | 2.2V | 00:00:00 | 00:00:00 | 00:00:00 | |
| AA1-15 | 2026-09-02 00:16:34 | 55.08387 | 19.74065 | 196° | 99km/h | 1597m | 12.7m/s | -50.4°C | 1% | 57.8hPa | 2.2V | 00:00:00 | 00:00:00 | 00:00:00 | |
| AA1-15 | 2026-09-02 00:16:32 | 55.08407 | 19.74080 | 189° | 100km/h | 1581m | 11.9m/s | -50.3°C | 1.1% | 57.9hPa | 2.2V | 00:00:00 | 00:00:00 | 00:00:00 | |
| AA1-15 | 2026-09-02 00:16:29 | 55.08472 | 19.74088 | 176° | 95km/h | 1564m | 8.2m/s | -50.2°C | 1.1% | 58.1hPa | 2.2V | 00:00:00 | 00:00:00 | 00:00:00 | |
| AA1-15 | 2026-09-02 00:16:28 | 55.08496 | 19.74081 | 169° | 95km/h | 1558m | 8.5m/s | -50.2°C | 1.1% | 58.1hPa | 2.2V | 00:00:00 | 00:00:00 | 00:00:00 | |
| AA1-15 | 2026-09-02 00:16:23 | 55.08620 | 19.73955 | 131° | 93km/h | 1490m | 8.7m/s | -49.9°C | 1% | 58.4hPa | 2.2V | 00:00:00 | 00:00:00 | 00:00:00 | |
| AA1-15 | 2026-09-02 00:16:21 | 55.08640 | 19.73923 | 125° | 95km/h | 1487m | 8.4m/s | -49.9°C | 1% | 58.5hPa | 2.2V | 00:00:00 | 00:00:00 | 00:00:00 | |
| AA1-15 | 2026-09-02 00:16:19 | 55.08664 | 19.73844 | 114° | 93km/h | 1469m | 8.2m/s | -49.8°C | 1.1% | 58.5hPa | 2.2V | 00:00:00 | 00:00:00 | 00:00:00 | |
| AA1-15 | 2026-09-02 00:16:18 | 55.08674 | 19.73756 | 105° | 100km/h | 1442m | 8.7m/s | -49.8°C | 1.1% | 58.6hPa | 2.2V | 00:00:00 | 00:00:00 | 00:00:00 | |
| AA1-15 | 2026-09-02 00:16:16 | 55.08679 | 19.73712 | 98° | 100km/h | 1433m | 9m/s | -49.8°C | 1% | 58.7hPa | 2.2V | 00:00:00 | 00:00:00 | 00:00:00 | |
| AA1-15 | 2026-09-02 00:16:15 | 55.08680 | 19.73671 | 94° | 97km/h | 1425m | 9m/s | -49.8°C | 1% | 58.8hPa | 2.2V | 00:00:00 | 00:00:00 | 00:00:00 | |
| AA1-15 | 2026-09-02 00:16:14 | 55.08673 | 19.73551 | 74° | 95km/h | 1410m | 8.3m/s | -49.8°C | 1% | 58.9hPa | 2.2V | 00:00:00 | 00:00:00 | 00:00:00 | |
| AA1-15 | 2026-09-02 00:16:11 | 55.08666 | 19.73512 | 69° | 91km/h | 1404m | 8.1m/s | -49.9°C | 1.1% | 59hPa | 2.2V | 00:00:00 | 00:00:00 | 00:00:00 | |
| AA1-15 | 2026-09-02 00:16:08 | 55.08633 | 19.73406 | 50° | 97km/h | 1396m | 8.2m/s | -50°C | 1.1% | 59.1hPa | 2.2V | 00:00:00 | 00:00:00 | 00:00:00 | |
| AA1-15 | 2026-09-02 00:16:07 | 55.08607 | 19.73352 | 37° | 93km/h | 1400m | 9m/s | -50.1°C | 1% | 59.2hPa | 2.2V | 00:00:00 | 00:00:00 | 00:00:00 | |
| AA1-15 | 2026-09-02 00:16:04 | 55.08576 | 19.73313 | 25° | 99km/h | 1391m | 7.7m/s | -50.1°C | 1% | 59.3hPa | 2.2V | 00:00:00 | 00:00:00 | 00:00:00 | |
| AA1-15 | 2026-09-02 00:16:04 | 55.08552 | 19.73294 | 21° | 91km/h | 1381m | 8.1m/s | -50.1°C | 1% | 59.4hPa | 2.2V | 00:00:00 | 00:00:00 | 00:00:00 | |
| AA1-15 | 2026-09-02 00:16:02 | 55.08526 | 19.73280 | 11° | 97km/h | 1367m | 8.3m/s | -50.1°C | 1% | 59.4hPa | 2.2V | 00:00:00 | 00:00:00 | 00:00:00 | |
| AA1-15 | 2026-09-02 00:16:00 | 55.08477 | 19.73269 | 0° | 95km/h | 1342m | 8.4m/s | -50°C | 1% | 59.5hPa | 2.2V | 00:00:00 | 00:00:00 | 00:00:00 | |
| AA1-15 | 2026-09-02 00:15:58 | 55.08432 | 19.73269 | 0° | 100km/h | 1320m | 8.6m/s | -50°C | 1% | 59.6hPa | 2.2V | 00:00:00 | 00:00:00 | 00:00:00 | |
| AA1-15 | 2026-09-02 00:15:57 | 55.08412 | 19.73275 | 357° | 91km/h | 1312m | 8.7m/s | -50°C | 1% | 59.7hPa | 2.2V | 00:00:00 | 00:00:00 | 00:00:00 | |
| AA1-15 | 2026-09-02 00:15:56 | 55.08369 | 19.73281 | 0° | 97km/h | 1299m | 8.5m/s | -50.1°C | 1% | 59.8hPa | 2.2V | 00:00:00 | 00:00:00 | 00:00:00 | |
| AA1-15 | 2026-09-02 00:15:52 | 55.08246 | 19.73285 | 1° | 93km/h | 1234m | 6.4m/s | -50°C | 1% | 60.1hPa | 2.2V | 00:00:00 | 00:00:00 | 00:00:00 | |
| AA1-15 | 2026-09-02 00:15:49 | 55.08223 | 19.73283 | 360° | 93km/h | 1228m | 8.3m/s | -50°C | 1% | 60.1hPa | 2.2V | 00:00:00 | 00:00:00 | 00:00:00 | |
| AA1-15 | 2026-09-02 00:15:47 | 55.08149 | 19.73284 | 0° | 93km/h | 1198m | 8.1m/s | -50.1°C | 1% | 60.2hPa | 2.2V | 00:00:00 | 00:00:00 | 00:00:00 | |
| AA1-15 | 2026-09-02 00:15:45 | 55.08101 | 19.73287 | 0° | 95km/h | 1172m | 8.4m/s | -50.2°C | 1% | 60.4hPa | 2.2V | 00:00:00 | 00:00:00 | 00:00:00 | |
| AA1-15 | 2026-09-02 00:15:42 | 55.08051 | 19.73291 | 0° | 93km/h | 1144m | 9.7m/s | -50.3°C | 1% | 60.5hPa | 2.2V | 00:00:00 | 00:00:00 | 00:00:00 | |
| AA1-15 | 2026-09-02 00:15:37 | 55.07966 | 19.73182 | 80° | 97km/h | 1118m | 8.1m/s | -50.3°C | 1.1% | 60.7hPa | 2.2V | 00:00:00 | 00:00:00 | 00:00:00 | |
| AA1-15 | 2026-09-02 00:15:35 | 55.07980 | 19.73067 | 133° | 97km/h | 1079m | 8.7m/s | -50.3°C | 1% | 60.9hPa | 2.2V | 00:00:00 | 00:00:00 | 00:00:00 | |
| AA1-15 | 2026-09-02 00:15:34 | 55.07995 | 19.73043 | 153° | 97km/h | 1064m | 8.6m/s | -50.3°C | 1% | 61hPa | 2.2V | 00:00:00 | 00:00:00 | 00:00:00 | |
| AA1-15 | 2026-09-02 00:15:31 | 55.08033 | 19.73027 | 189° | 89km/h | 1038m | 8.5m/s | -50.2°C | 1% | 61hPa | 2.2V | 00:00:00 | 00:00:00 | 00:00:00 | |
| AA1-15 | 2026-09-02 00:15:29 | 55.08077 | 19.73088 | 243° | 97km/h | 1006m | 8.6m/s | -50.2°C | 1% | 61.2hPa | 2.2V | 00:00:00 | 00:00:00 | 00:00:00 | |
| AA1-15 | 2026-09-02 00:15:27 | 55.08080 | 19.73127 | 264° | 95km/h | 999m | 8.7m/s | -50.2°C | 1% | 61.2hPa | 2.2V | 00:00:00 | 00:00:00 | 00:00:00 | |
| AA1-15 | 2026-09-02 00:15:23 | 55.08081 | 19.73301 | 270° | 97km/h | 954m | 7.5m/s | -50.3°C | 1% | 61.5hPa | 2.2V | 00:00:00 | 00:00:00 | 00:00:00 | |
| AA1-15 | 2026-09-02 00:15:22 | 55.08083 | 19.73342 | 270° | 93km/h | 947m | 7.7m/s | -50.3°C | 1% | 61.5hPa | 2.2V | 00:00:00 | 00:00:00 | 00:00:00 | |
| AA1-15 | 2026-09-02 00:15:19 | 55.08089 | 19.73554 | 270° | 95km/h | 928m | 8m/s | -50.3°C | 1% | 61.8hPa | 2.2V | 00:00:00 | 00:00:00 | 00:00:00 | |
| AA1-15 | 2026-09-02 00:15:16 | 55.08030 | 19.73734 | 271° | 100km/h | 1020m | 6.9m/s | -50.3°C | 1% | 61.9hPa | 2.2V | 00:00:00 | 00:00:00 | 00:00:00 | |
| AA1-15 | 2026-09-02 00:15:14 | 55.08004 | 19.73812 | 274° | 100km/h | 1042m | 7m/s | -50.2°C | 1% | 61.9hPa | 2.2V | 00:00:00 | 00:00:00 | 00:00:00 | |
| AA1-15 | 2026-09-02 00:15:13 | 55.07970 | 19.73889 | 273° | 99km/h | 1051m | 5.8m/s | -50.2°C | 1% | 62hPa | 2.2V | 00:00:00 | 00:00:00 | 00:00:00 | |
| AA1-15 | 2026-09-02 00:15:11 | 55.07429 | 19.74835 | 270° | 110km/h | 1675m | 1.5m/s | -50.1°C | 1% | 62.1hPa | 2.2V | 00:00:00 | 00:00:00 | 00:00:00 | |
| AA1-15 | 2026-09-02 00:15:06 | 54.92011 | 19.90170 | 0° | 0km/h | 159087m | 0m/s | -50.2°C | 1% | 62.4hPa | 2.2V | 00:00:00 | 00:00:00 | 00:00:00 | |
| AA1-15 | 2026-09-02 00:14:55 | 54.92034 | 19.89693 | 95° | 120km/h | 159087m | 23.9m/s | -50.6°C | 1% | 62.9hPa | 2.2V | 00:00:00 | 00:00:00 | 00:00:00 | |
| AA1-15 | 2026-09-02 00:14:45 | 54.92068 | 19.89614 | 269° | 16km/h | 2629m | 7.8m/s | -50.9°C | 1% | 63.6hPa | 2.2V | 00:00:00 | 00:00:00 | 00:00:00 | |
| AA1-15 | 2026-09-02 00:14:27 | 54.92105 | 19.89725 | 266° | 16km/h | 2505m | 8.8m/s | -50.9°C | 1.1% | 64.5hPa | 2.2V | 00:00:00 | 00:00:00 | 00:00:00 | |
| AA1-15 | 2026-09-02 00:14:15 | 54.92103 | 19.89784 | 273° | 15km/h | 2373m | 8.7m/s | -50.4°C | 1.1% | 65.2hPa | 2.2V | 00:00:00 | 00:00:00 | 00:00:00 | |
| AA1-15 | 2026-09-02 00:14:03 | 54.92116 | 19.89867 | 269° | 13km/h | 2258m | 8.3m/s | -50.4°C | 1.1% | 65.9hPa | 2.2V | 00:00:00 | 00:00:00 | 00:00:00 | |
| AA1-15 | 2026-09-02 00:13:51 | 54.92113 | 19.89957 | 276° | 16km/h | 2232m | 9m/s | -50.5°C | 1.1% | 66.6hPa | 2.2V | 00:00:00 | 00:00:00 | 00:00:00 | |
| AA1-15 | 2026-09-02 00:13:41 | 54.92119 | 19.90023 | 269° | 15km/h | 2155m | 8.3m/s | -50.4°C | 1.1% | 67.2hPa | 2.2V | 00:00:00 | 00:00:00 | 00:00:00 | |
| AA1-15 | 2026-09-02 00:13:29 | 54.92113 | 19.90075 | 275° | 13km/h | 159087m | 8.2m/s | -50.7°C | 1.1% | 67.9hPa | 2.2V | 00:00:00 | 00:00:00 | 00:00:00 | |
| AA1-15 | 2026-09-02 00:13:11 | 54.92106 | 19.90201 | 270° | 16km/h | 1909m | 7.9m/s | -50.8°C | 1.1% | 69hPa | 2.2V | 00:00:00 | 00:00:00 | 00:00:00 | |
| AA1-15 | 2026-09-02 00:13:08 | 54.92107 | 19.90218 | 270° | 16km/h | 1893m | 7.7m/s | -50.8°C | 1.1% | 69.1hPa | 2.2V | 00:00:00 | 00:00:00 | 00:00:00 | |
| AA1-15 | 2026-09-02 00:13:07 | 54.92109 | 19.90232 | 272° | 15km/h | 1873m | 8.2m/s | -50.9°C | 1.2% | 69.3hPa | 2.2V | 00:00:00 | 00:00:00 | 00:00:00 | |
| AA1-15 | 2026-09-02 00:13:05 | 54.92110 | 19.90239 | 270° | 13km/h | 1863m | 7.9m/s | -51°C | 1.2% | 69.3hPa | 2.2V | 00:00:00 | 00:00:00 | 00:00:00 | |
| AA1-15 | 2026-09-02 00:13:03 | 54.92111 | 19.90252 | 271° | 15km/h | 1842m | 7.6m/s | -51°C | 1.2% | 69.5hPa | 2.2V | 00:00:00 | 00:00:00 | 00:00:00 | |
| AA1-15 | 2026-09-02 00:13:01 | 54.92113 | 19.90263 | 272° | 13km/h | 1828m | 8.4m/s | -51.1°C | 1.2% | 69.6hPa | 2.2V | 00:00:00 | 00:00:00 | 00:00:00 | |
| AA1-15 | 2026-09-02 00:12:59 | 54.92116 | 19.90271 | 270° | 13km/h | 1808m | 8.1m/s | -51.1°C | 1.2% | 69.7hPa | 2.2V | 00:00:00 | 00:00:00 | 00:00:00 | |
| AA1-15 | 2026-09-02 00:12:56 | 54.92126 | 19.90288 | 263° | 15km/h | 1775m | 9.3m/s | -51°C | 1.2% | 70hPa | 2.2V | 00:00:00 | 00:00:00 | 00:00:00 | |
| AA1-15 | 2026-09-02 00:12:53 | 54.92126 | 19.90303 | 267° | 16km/h | 1759m | 8.4m/s | -50.9°C | 1.2% | 70.1hPa | 2.2V | 00:00:00 | 00:00:00 | 00:00:00 | |
| AA1-15 | 2026-09-02 00:12:52 | 54.92125 | 19.90315 | 267° | 16km/h | 1740m | 8.8m/s | -50.9°C | 1.2% | 70.2hPa | 2.2V | 00:00:00 | 00:00:00 | 00:00:00 | |
| AA1-15 | 2026-09-02 00:12:47 | 54.92121 | 19.90345 | 273° | 13km/h | 1690m | 8.9m/s | -50.9°C | 1.3% | 70.5hPa | 2.2V | 00:00:00 | 00:00:00 | 00:00:00 | |
| AA1-15 | 2026-09-02 00:12:43 | 54.92115 | 19.90437 | 261° | 95km/h | 1642m | 8.9m/s | -50.8°C | 1.3% | 70.7hPa | 2.2V | 00:00:00 | 00:00:00 | 00:00:00 | |
| AA1-15 | 2026-09-02 00:12:40 | 54.92130 | 19.90545 | 240° | 97km/h | 1624m | 8.4m/s | -50.7°C | 1.3% | 70.9hPa | 2.2V | 00:00:00 | 00:00:00 | 00:00:00 | |
| AA1-15 | 2026-09-02 00:12:39 | 54.92135 | 19.90579 | 239° | 93km/h | 1614m | 8.3m/s | -50.7°C | 1.3% | 71hPa | 2.2V | 00:00:00 | 00:00:00 | 00:00:00 | |
| AA1-15 | 2026-09-02 00:12:36 | 54.92180 | 19.90667 | 219° | 93km/h | 1609m | 8.8m/s | -50.6°C | 1.3% | 71.1hPa | 2.2V | 00:00:00 | 00:00:00 | 00:00:00 | |
| AA1-15 | 2026-09-02 00:12:35 | 54.92230 | 19.90708 | 206° | 88km/h | 1646m | 9m/s | -50.5°C | 1.3% | 71.3hPa | 2.2V | 00:00:00 | 00:00:00 | 00:00:00 | |
| AA1-15 | 2026-09-02 00:12:33 | 54.92262 | 19.90733 | 197° | 99km/h | 1658m | 9.4m/s | -50.5°C | 1.3% | 71.4hPa | 2.2V | 00:00:00 | 00:00:00 | 00:00:00 | |
| AA1-15 | 2026-09-02 00:12:31 | 54.92322 | 19.90766 | 190° | 75km/h | 1645m | 27.9m/s | -50.5°C | 1.3% | 71.5hPa | 2.2V | 00:00:00 | 00:00:00 | 00:00:00 | |
| AA1-15 | 2026-09-02 00:12:30 | 54.92341 | 19.90771 | 181° | 88km/h | 1605m | 23.5m/s | -50.5°C | 1.3% | 71.5hPa | 2.2V | 00:00:00 | 00:00:00 | 00:00:00 | |
| AA1-15 | 2026-09-02 00:12:28 | 54.92392 | 19.90772 | 171° | 95km/h | 1565m | 8.4m/s | -50.5°C | 1.3% | 71.7hPa | 2.2V | 00:00:00 | 00:00:00 | 00:00:00 | |
| AA1-15 | 2026-09-02 00:12:28 | 54.92415 | 19.90762 | 164° | 100km/h | 1553m | 8.2m/s | -50.5°C | 1.4% | 71.7hPa | 2.2V | 00:00:00 | 00:00:00 | 00:00:00 | |
| AA1-15 | 2026-09-02 00:12:24 | 54.92505 | 19.90686 | 140° | 99km/h | 1513m | 8.7m/s | -50.6°C | 1.4% | 72hPa | 2.2V | 00:00:00 | 00:00:00 | 00:00:00 | |
| AA1-15 | 2026-09-02 00:12:22 | 54.92522 | 19.90658 | 131° | 93km/h | 1501m | 8.7m/s | -50.6°C | 1.4% | 72.1hPa | 2.2V | 00:00:00 | 00:00:00 | 00:00:00 | |
| AA1-15 | 2026-09-02 00:12:18 | 54.92571 | 19.90518 | 109° | 97km/h | 1464m | 8.6m/s | -50.6°C | 1.4% | 72.3hPa | 2.2V | 00:00:00 | 00:00:00 | 00:00:00 | |
| AA1-15 | 2026-09-02 00:12:17 | 54.92578 | 19.90478 | 104° | 97km/h | 1452m | 8.9m/s | -50.6°C | 1.4% | 72.3hPa | 2.2V | 00:00:00 | 00:00:00 | 00:00:00 | |
| AA1-15 | 2026-09-02 00:12:15 | 54.92587 | 19.90350 | 86° | 95km/h | 1427m | 8.6m/s | -50.5°C | 1.4% | 72.6hPa | 2.2V | 00:00:00 | 00:00:00 | 00:00:00 | |
| AA1-15 | 2026-09-02 00:12:11 | 54.92575 | 19.90201 | 60° | 95km/h | 1401m | 8.3m/s | -50.4°C | 1.5% | 72.8hPa | 2.2V | 00:00:00 | 00:00:00 | 00:00:00 | |
| AA1-15 | 2026-09-02 00:12:07 | 54.92526 | 19.90109 | 42° | 95km/h | 1378m | 8.4m/s | -50.3°C | 1.5% | 73hPa | 2.2V | 00:00:00 | 00:00:00 | 00:00:00 | |
| AA1-15 | 2026-09-02 00:12:05 | 54.92483 | 19.90057 | 31° | 95km/h | 1356m | 7.5m/s | -50.3°C | 1.5% | 73.1hPa | 2.2V | 00:00:00 | 00:00:00 | 00:00:00 | |
| AA1-15 | 2026-09-02 00:12:03 | 54.92422 | 19.90011 | 13° | 97km/h | 1339m | 8.2m/s | -50.2°C | 1.5% | 73.3hPa | 2.2V | 00:00:00 | 00:00:00 | 00:00:00 | |
| AA1-15 | 2026-09-02 00:12:01 | 54.92400 | 19.90006 | 6° | 97km/h | 1330m | 8.5m/s | -50.2°C | 1.5% | 73.4hPa | 2.2V | 00:00:00 | 00:00:00 | 00:00:00 | |
| AA1-15 | 2026-09-02 00:12:00 | 54.92353 | 19.90004 | 0° | 95km/h | 1312m | 8.1m/s | -50.2°C | 1.5% | 73.5hPa | 2.2V | 00:00:00 | 00:00:00 | 00:00:00 | |
| AA1-15 | 2026-09-02 00:11:58 | 54.92328 | 19.90004 | 360° | 100km/h | 1303m | 8.2m/s | -50.2°C | 1.6% | 73.5hPa | 2.2V | 00:00:00 | 00:00:00 | 00:00:00 | |
| AA1-15 | 2026-09-02 00:11:57 | 54.92302 | 19.90003 | 0° | 93km/h | 1292m | 8.3m/s | -50.2°C | 1.6% | 73.6hPa | 2.2V | 00:00:00 | 00:00:00 | 00:00:00 | |
| AA1-15 | 2026-09-02 00:11:54 | 54.92194 | 19.90000 | 0° | 95km/h | 1262m | 8.4m/s | -50.1°C | 1.6% | 73.9hPa | 2.2V | 00:00:00 | 00:00:00 | 00:00:00 | |
| AA1-15 | 2026-09-02 00:11:52 | 54.92133 | 19.89984 | 359° | 99km/h | 1240m | 7.9m/s | -50.1°C | 1.6% | 74hPa | 2.2V | 00:00:00 | 00:00:00 | 00:00:00 | |
| AA1-15 | 2026-09-02 00:11:50 | 54.92104 | 19.89969 | 1° | 95km/h | 1220m | 8.5m/s | -50.1°C | 1.6% | 74.1hPa | 2.2V | 00:00:00 | 00:00:00 | 00:00:00 | |
| AA1-15 | 2026-09-02 00:11:49 | 54.92051 | 19.89960 | 4° | 75km/h | 1191m | 12.8m/s | -50.1°C | 1.6% | 74.2hPa | 2.2V | 00:00:00 | 00:00:00 | 00:00:00 | |
| AA1-15 | 2026-09-02 00:11:43 | 54.91947 | 19.89970 | 360° | 99km/h | 1159m | 8.3m/s | -50°C | 1.7% | 74.5hPa | 2.2V | 00:00:00 | 00:00:00 | 00:00:00 | |
| AA1-15 | 2026-09-02 00:11:41 | 54.91902 | 19.89971 | 6° | 97km/h | 1144m | 8.5m/s | -49.9°C | 1.7% | 74.7hPa | 2.2V | 00:00:00 | 00:00:00 | 00:00:00 | |
| AA1-15 | 2026-09-02 00:11:39 | 54.91859 | 19.89938 | 42° | 97km/h | 1121m | 8.9m/s | -49.9°C | 1.7% | 74.8hPa | 2.2V | 00:00:00 | 00:00:00 | 00:00:00 | |
| AA1-15 | 2026-09-02 00:11:38 | 54.91839 | 19.89864 | 81° | 99km/h | 1100m | 8.3m/s | -49.8°C | 1.8% | 74.9hPa | 2.2V | 00:00:00 | 00:00:00 | 00:00:00 | |
| AA1-15 | 2026-09-02 00:11:37 | 54.91842 | 19.89822 | 100° | 99km/h | 1088m | 8.4m/s | -49.8°C | 1.7% | 75hPa | 2.2V | 00:00:00 | 00:00:00 | 00:00:00 | |
| AA1-15 | 2026-09-02 00:11:35 | 54.91849 | 19.89781 | 115° | 97km/h | 1075m | 8.4m/s | -49.8°C | 1.7% | 75.1hPa | 2.2V | 00:00:00 | 00:00:00 | 00:00:00 | |
| AA1-15 | 2026-09-02 00:11:33 | 54.91880 | 19.89722 | 153° | 97km/h | 1054m | 8.4m/s | -49.7°C | 1.8% | 75.1hPa | 2.2V | 00:00:00 | 00:00:00 | 00:00:00 | |
| AA1-15 | 2026-09-02 00:11:32 | 54.91900 | 19.89710 | 172° | 95km/h | 1042m | 9.2m/s | -49.6°C | 1.8% | 75.3hPa | 2.2V | 00:00:00 | 00:00:00 | 00:00:00 | |
| AA1-15 | 2026-09-02 00:11:31 | 54.91924 | 19.89710 | 191° | 91km/h | 1032m | 8.1m/s | -49.6°C | 1.8% | 75.3hPa | 2.2V | 00:00:00 | 00:00:00 | 00:00:00 | |
| AA1-15 | 2026-09-02 00:11:30 | 54.91965 | 19.89749 | 225° | 95km/h | 1012m | 8.7m/s | -49.5°C | 1.8% | 75.5hPa | 2.2V | 00:00:00 | 00:00:00 | 00:00:00 | |
| AA1-15 | 2026-09-02 00:11:28 | 54.91988 | 19.89824 | 267° | 99km/h | 995m | 11m/s | -49.4°C | 1.8% | 75.6hPa | 2.2V | 00:00:00 | 00:00:00 | 00:00:00 | |
| AA1-15 | 2026-09-02 00:11:22 | 54.91994 | 19.90038 | 270° | 95km/h | 961m | 8.3m/s | -49.2°C | 1.9% | 75.9hPa | 2.2V | 00:00:00 | 00:00:00 | 00:00:00 | |
| AA1-15 | 2026-09-02 00:11:21 | 54.91997 | 19.90081 | 271° | 95km/h | 955m | 8m/s | -49.1°C | 1.9% | 76hPa | 2.2V | 00:00:00 | 00:00:00 | 00:00:00 | |
| AA1-15 | 2026-09-02 00:11:20 | 54.92000 | 19.90208 | 270° | 95km/h | 939m | 8.1m/s | -49°C | 1.9% | 76.2hPa | 2.2V | 00:00:00 | 00:00:00 | 00:00:00 | |
| AA1-15 | 2026-09-02 00:11:18 | 54.92012 | 19.90293 | 270° | 95km/h | 938m | 8.5m/s | -48.9°C | 1.9% | 76.3hPa | 2.2V | 00:00:00 | 00:00:00 | 00:00:00 | |
| AA1-15 | 2026-09-02 00:11:15 | 54.92031 | 19.90376 | 269° | 95km/h | 966m | 6.9m/s | -48.8°C | 1.9% | 76.5hPa | 2.2V | 00:00:00 | 00:00:00 | 00:00:00 | |
| AA1-15 | 2026-09-02 00:11:13 | 54.92067 | 19.90425 | 265° | 97km/h | 1046m | 2.7m/s | -48.8°C | 1.9% | 76.5hPa | 2.2V | 00:00:00 | 00:00:00 | 00:00:00 | |
| AA1-15 | 2026-09-02 00:11:05 | 54.92655 | 19.91282 | 179° | 104km/h | 159087m | -5.7m/s | -48.6°C | 1.9% | 77.1hPa | 2.2V | 00:00:00 | 00:00:00 | 00:00:00 | |
| AA1-15 | 2026-09-02 00:10:54 | 54.88406 | 20.04093 | 72° | 16km/h | 159087m | 11.5m/s | -48.3°C | 2% | 77.8hPa | 2.2V | 00:00:00 | 00:00:00 | 00:00:00 | |
| AA1-15 | 2026-09-02 00:10:43 | 54.88355 | 20.04076 | 7° | 33km/h | 2855m | 11.8m/s | -48.2°C | 2% | 78.6hPa | 2.2V | 00:00:00 | 00:00:00 | 00:00:00 | |
| AA1-15 | 2026-09-02 00:10:32 | 54.88289 | 20.04050 | 1° | 11km/h | 2761m | 8.2m/s | -48.2°C | 1.9% | 79.3hPa | 2.2V | 00:00:00 | 00:00:00 | 00:00:00 | |
| AA1-15 | 2026-09-02 00:10:21 | 54.88244 | 20.04046 | 2° | 16km/h | 2672m | 8.4m/s | -48.2°C | 1.9% | 80hPa | 2.2V | 00:00:00 | 00:00:00 | 00:00:00 | |
| AA1-15 | 2026-09-02 00:10:11 | 54.88212 | 20.04046 | 360° | 16km/h | 2628m | 8m/s | -48.6°C | 1.9% | 80.7hPa | 2.2V | 00:00:00 | 00:00:00 | 00:00:00 | |
| AA1-15 | 2026-09-02 00:09:59 | 54.88204 | 20.04071 | 358° | 11km/h | 2603m | 7.9m/s | -48.9°C | 2% | 81.5hPa | 2.2V | 00:00:00 | 00:00:00 | 00:00:00 | |
| AA1-15 | 2026-09-02 00:09:48 | 54.88135 | 20.04056 | 7° | 22km/h | 2473m | 8.1m/s | -49°C | 2% | 82.3hPa | 2.2V | 00:00:00 | 00:00:00 | 00:00:00 | |
| AA1-15 | 2026-09-02 00:09:37 | 54.88088 | 20.04039 | 340° | 5km/h | 2361m | 8.1m/s | -49.2°C | 2.1% | 83.1hPa | 2.2V | 00:00:00 | 00:00:00 | 00:00:00 | |
| AA1-15 | 2026-09-02 00:09:29 | 54.88076 | 20.04067 | 351° | 16km/h | 2303m | 9.1m/s | -48.9°C | 2.1% | 83.8hPa | 2.2V | 00:00:00 | 00:00:00 | 00:00:00 | |
| AA1-15 | 2026-09-02 00:09:16 | 54.88042 | 20.04069 | 6° | 9km/h | 2208m | 8.7m/s | -48.6°C | 2.2% | 84.7hPa | 2.2V | 00:00:00 | 00:00:00 | 00:00:00 | |
| AA1-15 | 2026-09-02 00:09:05 | 54.87985 | 20.04055 | 352° | 13km/h | 2110m | 10.2m/s | -48.4°C | 2.2% | 85.5hPa | 2.2V | 00:00:00 | 00:00:00 | 00:00:00 | |
| AA1-15 | 2026-09-02 00:08:54 | 54.87940 | 20.04054 | 356° | 13km/h | 1993m | 8.2m/s | -48.9°C | 2.3% | 86.3hPa | 2.2V | 00:00:00 | 00:00:00 | 00:00:00 | |
| AA1-15 | 2026-09-02 00:08:53 | 54.87937 | 20.04056 | 360° | 16km/h | 1985m | 8.6m/s | -48.9°C | 2.2% | 86.4hPa | 2.2V | 00:00:00 | 00:00:00 | 00:00:00 | |
| AA1-15 | 2026-09-02 00:08:51 | 54.87927 | 20.04053 | 1° | 16km/h | 1965m | 8.1m/s | -48.8°C | 2.3% | 86.5hPa | 2.2V | 00:00:00 | 00:00:00 | 00:00:00 | |
| AA1-15 | 2026-09-02 00:08:50 | 54.87918 | 20.04049 | 1° | 16km/h | 1950m | 8.4m/s | -48.8°C | 2.2% | 86.6hPa | 2.2V | 00:00:00 | 00:00:00 | 00:00:00 | |
| AA1-15 | 2026-09-02 00:08:48 | 54.87894 | 20.04038 | 4° | 13km/h | 1908m | 9.6m/s | -48.7°C | 2.3% | 86.8hPa | 2.2V | 00:00:00 | 00:00:00 | 00:00:00 | |
| AA1-15 | 2026-09-02 00:08:47 | 54.87888 | 20.04037 | 13° | 16km/h | 1887m | 11.3m/s | -48.8°C | 2.3% | 86.9hPa | 2.2V | 00:00:00 | 00:00:00 | 00:00:00 | |
| AA1-15 | 2026-09-02 00:08:45 | 54.87872 | 20.04039 | 1° | 99km/h | 1859m | 9.1m/s | -48.8°C | 2.3% | 87hPa | 2.2V | 00:00:00 | 00:00:00 | 00:00:00 | |
| AA1-15 | 2026-09-02 00:08:44 | 54.87850 | 20.04041 | 358° | 102km/h | 1859m | 8.3m/s | -48.9°C | 2.3% | 87.1hPa | 2.2V | 00:00:00 | 00:00:00 | 00:00:00 | |
| AA1-15 | 2026-09-02 00:08:43 | 54.87824 | 20.04039 | 358° | 95km/h | 1860m | 8.9m/s | -48.9°C | 2.3% | 87.1hPa | 2.2V | 00:00:00 | 00:00:00 | 00:00:00 | |
| AA1-15 | 2026-09-02 00:08:42 | 54.87797 | 20.04039 | 354° | 99km/h | 1862m | 8.4m/s | -49°C | 2.3% | 87.2hPa | 2.2V | 00:00:00 | 00:00:00 | 00:00:00 | |
| AA1-15 | 2026-09-02 00:08:40 | 54.87748 | 20.04048 | 352° | 97km/h | 1850m | 9.2m/s | -49°C | 2.3% | 87.4hPa | 2.2V | 00:00:00 | 00:00:00 | 00:00:00 | |
| AA1-15 | 2026-09-02 00:08:39 | 54.87722 | 20.04053 | 349° | 99km/h | 1840m | 9.4m/s | -49°C | 2.3% | 87.5hPa | 2.2V | 00:00:00 | 00:00:00 | 00:00:00 | |
| AA1-15 | 2026-09-02 00:08:38 | 54.87678 | 20.04070 | 345° | 97km/h | 1808m | 8.6m/s | -49°C | 2.3% | 87.6hPa | 2.2V | 00:00:00 | 00:00:00 | 00:00:00 | |
| AA1-15 | 2026-09-02 00:08:35 | 54.87637 | 20.04092 | 344° | 95km/h | 1807m | 8.5m/s | -49°C | 2.3% | 87.8hPa | 2.2V | 00:00:00 | 00:00:00 | 00:00:00 | |
| AA1-15 | 2026-09-02 00:08:34 | 54.87613 | 20.04103 | 343° | 100km/h | 1809m | 8.5m/s | -49°C | 2.3% | 87.8hPa | 2.2V | 00:00:00 | 00:00:00 | 00:00:00 | |
| AA1-15 | 2026-09-02 00:08:33 | 54.87589 | 20.04117 | 341° | 97km/h | 1811m | 7.9m/s | -49°C | 2.3% | 87.9hPa | 2.2V | 00:00:00 | 00:00:00 | 00:00:00 | |
| AA1-15 | 2026-09-02 00:08:31 | 54.87543 | 20.04150 | 337° | 95km/h | 1818m | 9.2m/s | -48.9°C | 2.4% | 88.1hPa | 2.2V | 00:00:00 | 00:00:00 | 00:00:00 | |
| AA1-15 | 2026-09-02 00:08:30 | 54.87527 | 20.04173 | 334° | 97km/h | 1845m | 7.9m/s | -48.9°C | 2.4% | 88.1hPa | 2.2V | 00:00:00 | 00:00:00 | 00:00:00 | |
| AA1-15 | 2026-09-02 00:08:28 | 54.87498 | 20.04220 | 334° | 97km/h | 1909m | 7.7m/s | -48.8°C | 2.4% | 88.3hPa | 2.2V | 00:00:00 | 00:00:00 | 00:00:00 | |
| AA1-15 | 2026-09-02 00:08:27 | 54.87475 | 20.04237 | 332° | 95km/h | 1906m | 9.1m/s | -48.7°C | 2.4% | 88.3hPa | 2.2V | 00:00:00 | 00:00:00 | 00:00:00 | |
| AA1-15 | 2026-09-02 00:08:25 | 54.87428 | 20.04275 | 328° | 93km/h | 1876m | 8.3m/s | -48.6°C | 2.4% | 88.5hPa | 2.2V | 00:00:00 | 00:00:00 | 00:00:00 | |
| AA1-15 | 2026-09-02 00:08:24 | 54.87440 | 20.04316 | 326° | 97km/h | 1878m | 8.1m/s | -48.6°C | 2.4% | 88.6hPa | 2.2V | 00:00:00 | 00:00:00 | 00:00:00 | |
| AA1-15 | 2026-09-02 00:08:22 | 54.87407 | 20.04367 | 324° | 97km/h | 1880m | 7.9m/s | -48.6°C | 2.4% | 88.7hPa | 2.2V | 00:00:00 | 00:00:00 | 00:00:00 | |
| AA1-15 | 2026-09-02 00:08:21 | 54.87384 | 20.04390 | 322° | 95km/h | 1867m | 7.8m/s | -48.5°C | 2.4% | 88.8hPa | 2.2V | 00:00:00 | 00:00:00 | 00:00:00 | |
| AA1-15 | 2026-09-02 00:08:20 | 54.87361 | 20.04413 | 320° | 95km/h | 1853m | 7.9m/s | -48.5°C | 2.4% | 88.9hPa | 2.2V | 00:00:00 | 00:00:00 | 00:00:00 | |
| AA1-15 | 2026-09-02 00:08:19 | 54.87343 | 20.04440 | 319° | 97km/h | 1838m | 8.4m/s | -48.5°C | 2.4% | 89hPa | 2.2V | 00:00:00 | 00:00:00 | 00:00:00 | |
| AA1-15 | 2026-09-02 00:08:17 | 54.87311 | 20.04497 | 317° | 95km/h | 1808m | 8.8m/s | -48.4°C | 2.4% | 89.1hPa | 2.2V | 00:00:00 | 00:00:00 | 00:00:00 | |
| AA1-15 | 2026-09-02 00:08:15 | 54.87280 | 20.04558 | 314° | 99km/h | 1787m | 8.4m/s | -48.4°C | 2.4% | 89.2hPa | 2.2V | 00:00:00 | 00:00:00 | 00:00:00 | |
| AA1-15 | 2026-09-02 00:08:14 | 54.87265 | 20.04591 | 311° | 97km/h | 1777m | 8.3m/s | -48.4°C | 2.4% | 89.3hPa | 2.2V | 00:00:00 | 00:00:00 | 00:00:00 | |
| AA1-15 | 2026-09-02 00:08:13 | 54.87250 | 20.04623 | 312° | 97km/h | 1764m | 8.5m/s | -48.4°C | 2.4% | 89.4hPa | 2.2V | 00:00:00 | 00:00:00 | 00:00:00 | |
| AA1-15 | 2026-09-02 00:08:11 | 54.87220 | 20.04691 | 305° | 95km/h | 1740m | 7.7m/s | -48.4°C | 2.4% | 89.6hPa | 2.2V | 00:00:00 | 00:00:00 | 00:00:00 | |
| AA1-15 | 2026-09-02 00:08:10 | 54.87205 | 20.04726 | 305° | 97km/h | 1731m | 7.8m/s | -48.4°C | 2.4% | 89.6hPa | 2.2V | 00:00:00 | 00:00:00 | 00:00:00 | |
| AA1-15 | 2026-09-02 00:08:08 | 54.87174 | 20.04799 | 303° | 97km/h | 1703m | 8.2m/s | -48.5°C | 2.4% | 89.8hPa | 2.2V | 00:00:00 | 00:00:00 | 00:00:00 | |
| AA1-15 | 2026-09-02 00:08:07 | 54.87164 | 20.04835 | 303° | 100km/h | 1692m | 8.6m/s | -48.5°C | 2.4% | 89.8hPa | 2.2V | 00:00:00 | 00:00:00 | 00:00:00 | |
| AA1-15 | 2026-09-02 00:08:06 | 54.87149 | 20.04909 | 298° | 95km/h | 1671m | 9.4m/s | -48.5°C | 2.4% | 90hPa | 2.2V | 00:00:00 | 00:00:00 | 00:00:00 | |
| AA1-15 | 2026-09-02 00:08:04 | 54.87140 | 20.04946 | 296° | 95km/h | 1663m | 9m/s | -48.5°C | 2.5% | 90.1hPa | 2.2V | 00:00:00 | 00:00:00 | 00:00:00 | |
| AA1-15 | 2026-09-02 00:08:03 | 54.87128 | 20.04985 | 294° | 99km/h | 1652m | 8m/s | -48.5°C | 2.4% | 90.2hPa | 2.2V | 00:00:00 | 00:00:00 | 00:00:00 | |
| AA1-15 | 2026-09-02 00:08:02 | 54.87116 | 20.05024 | 292° | 95km/h | 1641m | 8.7m/s | -48.5°C | 2.4% | 90.3hPa | 2.2V | 00:00:00 | 00:00:00 | 00:00:00 | |
| AA1-15 | 2026-09-02 00:07:59 | 54.87086 | 20.05140 | 287° | 95km/h | 1615m | 8m/s | -48.4°C | 2.5% | 90.5hPa | 2.2V | 00:00:00 | 00:00:00 | 00:00:00 | |
| AA1-15 | 2026-09-02 00:07:58 | 54.87078 | 20.05179 | 287° | 95km/h | 1607m | 8.2m/s | -48.3°C | 2.4% | 90.6hPa | 2.2V | 00:00:00 | 00:00:00 | 00:00:00 | |
| AA1-15 | 2026-09-02 00:07:56 | 54.87065 | 20.05261 | 282° | 95km/h | 1579m | 8.4m/s | -48.3°C | 2.5% | 90.7hPa | 2.2V | 00:00:00 | 00:00:00 | 00:00:00 | |
| AA1-15 | 2026-09-02 00:07:54 | 54.87048 | 20.05393 | 282° | 97km/h | 1530m | 10.9m/s | -48.4°C | 2.5% | 90.9hPa | 2.2V | 00:00:00 | 00:00:00 | 00:00:00 | |
| AA1-15 | 2026-09-02 00:07:53 | 54.87043 | 20.05433 | 279° | 99km/h | 1521m | 10m/s | -48.3°C | 2.4% | 91hPa | 2.2V | 00:00:00 | 00:00:00 | 00:00:00 | |
| AA1-15 | 2026-09-02 00:07:51 | 54.87040 | 20.05474 | 275° | 97km/h | 1513m | 9.3m/s | -48.3°C | 2.4% | 91.1hPa | 2.2V | 00:00:00 | 00:00:00 | 00:00:00 | |
| AA1-15 | 2026-09-02 00:07:50 | 54.87039 | 20.05514 | 275° | 95km/h | 1508m | 8.2m/s | -48.3°C | 2.5% | 91.2hPa | 2.2V | 00:00:00 | 00:00:00 | 00:00:00 | |
| AA1-15 | 2026-09-02 00:07:49 | 54.87037 | 20.05554 | 272° | 97km/h | 1503m | 8.4m/s | -48.4°C | 2.5% | 91.2hPa | 2.2V | 00:00:00 | 00:00:00 | 00:00:00 | |
| AA1-15 | 2026-09-02 00:07:47 | 54.87039 | 20.05642 | 268° | 99km/h | 1479m | 8.3m/s | -48.5°C | 2.5% | 91.4hPa | 2.2V | 00:00:00 | 00:00:00 | 00:00:00 | |
| AA1-15 | 2026-09-02 00:07:44 | 54.87042 | 20.05773 | 268° | 95km/h | 1429m | 11m/s | -48.4°C | 2.5% | 91.6hPa | 2.2V | 00:00:00 | 00:00:00 | 00:00:00 | |
| AA1-15 | 2026-09-02 00:07:42 | 54.87050 | 20.05861 | 262° | 97km/h | 1397m | 9.1m/s | -48.4°C | 2.5% | 91.8hPa | 2.2V | 00:00:00 | 00:00:00 | 00:00:00 | |
| AA1-15 | 2026-09-02 00:07:41 | 54.87055 | 20.05905 | 263° | 99km/h | 1387m | 8.8m/s | -48.4°C | 2.4% | 91.9hPa | 2.2V | 00:00:00 | 00:00:00 | 00:00:00 | |
| AA1-15 | 2026-09-02 00:07:40 | 54.87064 | 20.05946 | 259° | 97km/h | 1382m | 8.4m/s | -48.4°C | 2.5% | 92hPa | 2.2V | 00:00:00 | 00:00:00 | 00:00:00 | |
| AA1-15 | 2026-09-02 00:07:39 | 54.87075 | 20.05986 | 256° | 97km/h | 1375m | 8m/s | -48.4°C | 2.5% | 92hPa | 2.2V | 00:00:00 | 00:00:00 | 00:00:00 | |
| AA1-15 | 2026-09-02 00:07:37 | 54.87096 | 20.06064 | 250° | 97km/h | 1357m | 8.7m/s | -48.5°C | 2.4% | 92.2hPa | 2.2V | 00:00:00 | 00:00:00 | 00:00:00 | |
| AA1-15 | 2026-09-02 00:07:36 | 54.87102 | 20.06103 | 251° | 97km/h | 1349m | 8.4m/s | -48.5°C | 2.4% | 92.3hPa | 2.2V | 00:00:00 | 00:00:00 | 00:00:00 | |
| AA1-15 | 2026-09-02 00:07:34 | 54.87109 | 20.06179 | 248° | 97km/h | 1337m | 8.1m/s | -48.6°C | 2.5% | 92.4hPa | 2.2V | 00:00:00 | 00:00:00 | 00:00:00 | |
| AA1-15 | 2026-09-02 00:07:33 | 54.87121 | 20.06215 | 249° | 91km/h | 1329m | 8.5m/s | -48.6°C | 2.5% | 92.5hPa | 2.2V | 00:00:00 | 00:00:00 | 00:00:00 | |
| AA1-15 | 2026-09-02 00:07:32 | 54.87130 | 20.06252 | 245° | 95km/h | 1320m | 8.4m/s | -48.7°C | 2.5% | 92.6hPa | 2.2V | 00:00:00 | 00:00:00 | 00:00:00 | |
| AA1-15 | 2026-09-02 00:07:30 | 54.87143 | 20.06324 | 242° | 93km/h | 1301m | 8.9m/s | -48.8°C | 2.5% | 92.8hPa | 2.2V | 00:00:00 | 00:00:00 | 00:00:00 | |
| AA1-15 | 2026-09-02 00:07:30 | 54.87150 | 20.06362 | 240° | 93km/h | 1287m | 8.5m/s | -48.9°C | 2.5% | 92.8hPa | 2.2V | 00:00:00 | 00:00:00 | 00:00:00 | |
| AA1-15 | 2026-09-02 00:07:26 | 54.87189 | 20.06469 | 231° | 99km/h | 1266m | 8.6m/s | -48.9°C | 2.5% | 93hPa | 2.2V | 00:00:00 | 00:00:00 | 00:00:00 | |
| AA1-15 | 2026-09-02 00:07:24 | 54.87244 | 20.06572 | 231° | 95km/h | 1255m | 9.8m/s | -48.9°C | 2.5% | 93.3hPa | 2.2V | 00:00:00 | 00:00:00 | 00:00:00 | |
| AA1-15 | 2026-09-02 00:07:23 | 54.87258 | 20.06606 | 228° | 99km/h | 1255m | 8.1m/s | -48.9°C | 2.5% | 93.4hPa | 2.2V | 00:00:00 | 00:00:00 | 00:00:00 | |
| AA1-15 | 2026-09-02 00:07:20 | 54.87299 | 20.06668 | 225° | 95km/h | 1255m | 8.3m/s | -48.9°C | 2.5% | 93.5hPa | 2.2V | 00:00:00 | 00:00:00 | 00:00:00 | |
| AA1-15 | 2026-09-02 00:07:18 | 54.87333 | 20.06726 | 224° | 95km/h | 1253m | 7.6m/s | -49°C | 2.5% | 93.7hPa | 2.2V | 00:00:00 | 00:00:00 | 00:00:00 | |
| AA1-15 | 2026-09-02 00:07:17 | 54.87348 | 20.06754 | 222° | 95km/h | 1249m | 8.4m/s | -49.1°C | 2.5% | 93.8hPa | 2.2V | 00:00:00 | 00:00:00 | 00:00:00 | |
| AA1-15 | 2026-09-02 00:07:16 | 54.87366 | 20.06782 | 219° | 97km/h | 1242m | 7.7m/s | -49.1°C | 2.5% | 93.8hPa | 2.2V | 00:00:00 | 00:00:00 | 00:00:00 | |
| AA1-15 | 2026-09-02 00:07:13 | 54.87423 | 20.06862 | 215° | 97km/h | 1221m | 8.2m/s | -49.2°C | 2.6% | 94.1hPa | 2.2V | 00:00:00 | 00:00:00 | 00:00:00 | |
| AA1-15 | 2026-09-02 00:07:12 | 54.87443 | 20.06886 | 214° | 93km/h | 1217m | 8.2m/s | -49.1°C | 2.5% | 94.2hPa | 2.2V | 00:00:00 | 00:00:00 | 00:00:00 | |
| AA1-15 | 2026-09-02 00:07:11 | 54.87463 | 20.06909 | 211° | 97km/h | 1215m | 8.3m/s | -49.1°C | 2.6% | 94.2hPa | 2.2V | 00:00:00 | 00:00:00 | 00:00:00 | |
| AA1-15 | 2026-09-02 00:07:09 | 54.87501 | 20.06945 | 209° | 93km/h | 1215m | 9.1m/s | -49.2°C | 2.6% | 94.4hPa | 2.2V | 00:00:00 | 00:00:00 | 00:00:00 | |
| AA1-15 | 2026-09-02 00:07:08 | 54.87519 | 20.06953 | 206° | 99km/h | 1226m | 7.9m/s | -49.3°C | 2.6% | 94.5hPa | 2.2V | 00:00:00 | 00:00:00 | 00:00:00 | |
| AA1-15 | 2026-09-02 00:07:06 | 54.87559 | 20.06988 | 204° | 95km/h | 1240m | 8.3m/s | -49.3°C | 2.6% | 94.6hPa | 2.2V | 00:00:00 | 00:00:00 | 00:00:00 | |
| AA1-15 | 2026-09-02 00:07:05 | 54.87587 | 20.07017 | 202° | 97km/h | 1224m | 9m/s | -49.3°C | 2.6% | 94.7hPa | 2.2V | 00:00:00 | 00:00:00 | 00:00:00 | |
| AA1-15 | 2026-09-02 00:07:04 | 54.87611 | 20.07048 | 201° | 97km/h | 1200m | 9.3m/s | -49.3°C | 2.6% | 94.8hPa | 2.2V | 00:00:00 | 00:00:00 | 00:00:00 | |
| AA1-15 | 2026-09-02 00:07:01 | 54.87683 | 20.07102 | 197° | 102km/h | 1165m | 8.4m/s | -49.2°C | 2.6% | 95hPa | 2.2V | 00:00:00 | 00:00:00 | 00:00:00 | |
| AA1-15 | 2026-09-02 00:06:55 | 54.87815 | 20.07141 | 187° | 95km/h | 1090m | 8m/s | -49°C | 2.6% | 95.5hPa | 2.2V | 00:00:00 | 00:00:00 | 00:00:00 | |
| AA1-15 | 2026-09-02 00:06:53 | 54.87866 | 20.07143 | 184° | 95km/h | 1066m | 8.5m/s | -48.9°C | 2.6% | 95.7hPa | 2.2V | 00:00:00 | 00:00:00 | 00:00:00 | |
| AA1-15 | 2026-09-02 00:06:52 | 54.87892 | 20.07145 | 183° | 93km/h | 1053m | 8.8m/s | -48.9°C | 2.6% | 95.7hPa | 2.2V | 00:00:00 | 00:00:00 | 00:00:00 | |
| AA1-15 | 2026-09-02 00:06:50 | 54.87939 | 20.07147 | 180° | 95km/h | 1035m | 8.7m/s | -48.9°C | 2.6% | 95.9hPa | 2.2V | 00:00:00 | 00:00:00 | 00:00:00 | |
| AA1-15 | 2026-09-02 00:06:48 | 54.87985 | 20.07145 | 176° | 95km/h | 1022m | 8.5m/s | -49°C | 2.6% | 96hPa | 2.2V | 00:00:00 | 00:00:00 | 00:00:00 | |
| AA1-15 | 2026-09-02 00:06:46 | 54.88031 | 20.07137 | 174° | 100km/h | 998m | 8.3m/s | -49°C | 2.6% | 96.2hPa | 2.2V | 00:00:00 | 00:00:00 | 00:00:00 | |
| AA1-15 | 2026-09-02 00:06:43 | 54.88088 | 20.07108 | 167° | 95km/h | 955m | 9.2m/s | -49°C | 2.7% | 96.5hPa | 2.2V | 00:00:00 | 00:00:00 | 00:00:00 | |
| AA1-15 | 2026-09-02 00:06:42 | 54.88110 | 20.07097 | 166° | 93km/h | 944m | 8.7m/s | -49°C | 2.7% | 96.6hPa | 2.2V | 00:00:00 | 00:00:00 | 00:00:00 | |
| AA1-15 | 2026-09-02 00:06:40 | 54.88157 | 20.07078 | 162° | 91km/h | 924m | 8.8m/s | -49°C | 2.7% | 96.7hPa | 2.2V | 00:00:00 | 00:00:00 | 00:00:00 | |
| AA1-15 | 2026-09-02 00:06:38 | 54.88209 | 20.07053 | 161° | 99km/h | 909m | 7.9m/s | -48.9°C | 2.7% | 96.9hPa | 2.2V | 00:00:00 | 00:00:00 | 00:00:00 | |
| AA1-15 | 2026-09-02 00:06:37 | 54.88234 | 20.07038 | 160° | 99km/h | 902m | 8.4m/s | -48.9°C | 2.7% | 96.9hPa | 2.2V | 00:00:00 | 00:00:00 | 00:00:00 | |
| AA1-15 | 2026-09-02 00:06:36 | 54.88257 | 20.07023 | 155° | 95km/h | 894m | 8.3m/s | -48.9°C | 2.7% | 97hPa | 2.2V | 00:00:00 | 00:00:00 | 00:00:00 | |
| AA1-15 | 2026-09-02 00:06:35 | 54.88279 | 20.07006 | 154° | 97km/h | 887m | 8.2m/s | -48.8°C | 2.7% | 97.2hPa | 2.2V | 00:00:00 | 00:00:00 | 00:00:00 | |
| AA1-15 | 2026-09-02 00:06:34 | 54.88300 | 20.06987 | 155° | 97km/h | 880m | 8.2m/s | -48.8°C | 2.7% | 97.2hPa | 2.2V | 00:00:00 | 00:00:00 | 00:00:00 | |
| AA1-15 | 2026-09-02 00:06:32 | 54.88344 | 20.06944 | 150° | 95km/h | 863m | 8.3m/s | -48.7°C | 2.7% | 97.4hPa | 2.2V | 00:00:00 | 00:00:00 | 00:00:00 | |
| AA1-15 | 2026-09-02 00:06:31 | 54.88365 | 20.06921 | 148° | 97km/h | 851m | 8.9m/s | -48.7°C | 2.7% | 97.4hPa | 2.2V | 00:00:00 | 00:00:00 | 00:00:00 | |
| AA1-15 | 2026-09-02 00:06:28 | 54.88425 | 20.06850 | 145° | 97km/h | 819m | 8.6m/s | -48.9°C | 2.7% | 97.7hPa | 2.2V | 00:00:00 | 00:00:00 | 00:00:00 | |
| AA1-15 | 2026-09-02 00:06:25 | 54.88478 | 20.06766 | 142° | 99km/h | 789m | 7.9m/s | -49°C | 2.7% | 98hPa | 2.2V | 00:00:00 | 00:00:00 | 00:00:00 | |
| AA1-15 | 2026-09-02 00:06:24 | 54.88496 | 20.06738 | 138° | 93km/h | 779m | 8.4m/s | -49°C | 2.7% | 98hPa | 2.2V | 00:00:00 | 00:00:00 | 00:00:00 | |
| AA1-15 | 2026-09-02 00:06:22 | 54.88528 | 20.06680 | 134° | 95km/h | 762m | 8m/s | -48.9°C | 2.7% | 98.2hPa | 2.2V | 00:00:00 | 00:00:00 | 00:00:00 | |
| AA1-15 | 2026-09-02 00:06:21 | 54.88547 | 20.06651 | 134° | 99km/h | 754m | 8.2m/s | -49°C | 2.7% | 98.3hPa | 2.2V | 00:00:00 | 00:00:00 | 00:00:00 | |
| AA1-15 | 2026-09-02 00:06:20 | 54.88566 | 20.06622 | 131° | 97km/h | 748m | 8.1m/s | -48.9°C | 2.7% | 98.4hPa | 2.2V | 00:00:00 | 00:00:00 | 00:00:00 | |
| AA1-15 | 2026-09-02 00:06:19 | 54.88585 | 20.06593 | 130° | 97km/h | 742m | 8m/s | -48.9°C | 2.7% | 98.4hPa | 2.2V | 00:00:00 | 00:00:00 | 00:00:00 | |
| AA1-15 | 2026-09-02 00:06:17 | 54.88627 | 20.06539 | 129° | 97km/h | 739m | 8.3m/s | -49°C | 2.8% | 98.6hPa | 2.2V | 00:00:00 | 00:00:00 | 00:00:00 | |
| AA1-15 | 2026-09-02 00:06:16 | 54.88651 | 20.06514 | 126° | 95km/h | 742m | 8.3m/s | -49°C | 2.8% | 98.7hPa | 2.2V | 00:00:00 | 00:00:00 | 00:00:00 | |
| AA1-15 | 2026-09-02 00:06:15 | 54.88671 | 20.06489 | 123° | 95km/h | 738m | 8.2m/s | -49°C | 2.8% | 98.8hPa | 2.2V | 00:00:00 | 00:00:00 | 00:00:00 |